| time (UTC) | temp F | wind direction | speed knots | gust knots | rain 1hr in | rain 24hr in | rain mn in | humidity % | barometer mb |
| 20260506035344 | 67 | 126 | 0.0 | 0.9 | 0.00 | 0.00 | 0.00 | 42 | 1005.6 |
| 20260506035237 | 67 | 126 | 0.0 | 0.9 | 0.00 | 0.00 | 0.00 | 42 | 1005.6 |
| 20260506035137 | 67 | 146 | 0.0 | 0.9 | 0.00 | 0.00 | 0.00 | 42 | 1005.6 |
| 20260506035037 | 67 | 130 | 0.0 | 0.9 | 0.00 | 0.00 | 0.00 | 42 | 1005.6 |
| 20260506034935 | 67 | 130 | 0.0 | 0.9 | 0.00 | 0.00 | 0.00 | 41 | 1005.6 |
| 20260506034829 | 67 | 159 | 0.0 | 0.9 | 0.00 | 0.00 | 0.00 | 41 | 1005.6 |
| 20260506034738 | 67 | 150 | 0.0 | 0.0 | 0.00 | 0.00 | 0.00 | 41 | 1005.6 |
| 20260506034625 | 67 | 159 | 0.0 | 0.0 | 0.00 | 0.00 | 0.00 | 41 | 1005.6 |
| 20260506034519 | 68 | 159 | 0.0 | 0.0 | 0.00 | 0.00 | 0.00 | 41 | 1005.7 |
| 20260506034422 | 68 | 159 | 0.0 | 0.0 | 0.00 | 0.00 | 0.00 | 40 | 1005.7 |
| 20260506034314 | 68 | 159 | 0.0 | 0.0 | 0.00 | 0.00 | 0.00 | 40 | 1005.7 |
| 20260506034214 | 68 | 159 | 0.0 | 0.0 | 0.00 | 0.00 | 0.00 | 40 | 1005.6 |
| 20260506034112 | 68 | 159 | 0.0 | 0.0 | 0.00 | 0.00 | 0.00 | 40 | 1005.6 |
| 20260506034015 | 68 | 159 | 0.0 | 0.0 | 0.00 | 0.00 | 0.00 | 39 | 1005.6 |
| 20260506033919 | 68 | 159 | 0.0 | 0.0 | 0.00 | 0.00 | 0.00 | 39 | 1005.7 |
| 20260506033809 | 68 | 159 | 0.0 | 0.0 | 0.00 | 0.00 | 0.00 | 39 | 1005.7 |
| 20260506033709 | 68 | 159 | 0.0 | 0.0 | 0.00 | 0.00 | 0.00 | 39 | 1005.7 |
| 20260506033614 | 68 | 159 | 0.0 | 0.0 | 0.00 | 0.00 | 0.00 | 39 | 1005.7 |
| 20260506033513 | 68 | 159 | 0.0 | 0.0 | 0.00 | 0.00 | 0.00 | 39 | 1005.7 |
| 20260506033410 | 68 | 159 | 0.0 | 0.0 | 0.00 | 0.00 | 0.00 | 39 | 1005.7 |
| 20260506033308 | 68 | 159 | 0.0 | 0.0 | 0.00 | 0.00 | 0.00 | 39 | 1005.7 |
| 20260506033146 | 69 | 159 | 0.0 | 0.0 | 0.00 | 0.00 | 0.00 | 39 | 1005.8 |
| 20260506033035 | 69 | 159 | 0.0 | 0.0 | 0.00 | 0.00 | 0.00 | 38 | 1005.8 |
| 20260506032949 | 69 | 159 | 0.0 | 0.0 | 0.00 | 0.00 | 0.00 | 39 | 1005.8 |
| 20260506032839 | 69 | 159 | 0.0 | 0.0 | 0.00 | 0.00 | 0.00 | 39 | 1005.8 |
| 20260506032738 | 69 | 159 | 0.0 | 0.0 | 0.00 | 0.00 | 0.00 | 38 | 1005.7 |
| 20260506032641 | 69 | 159 | 0.0 | 0.0 | 0.00 | 0.00 | 0.00 | 38 | 1005.7 |
| 20260506032540 | 69 | 160 | 0.0 | 0.0 | 0.00 | 0.00 | 0.00 | 38 | 1005.7 |
| 20260506032440 | 69 | 160 | 0.0 | 0.9 | 0.00 | 0.00 | 0.00 | 38 | 1005.7 |
| 20260506032333 | 69 | 160 | 0.0 | 0.9 | 0.00 | 0.00 | 0.00 | 39 | 1005.7 |
| 20260506032232 | 69 | 160 | 0.0 | 0.9 | 0.00 | 0.00 | 0.00 | 38 | 1005.7 |
| 20260506032131 | 69 | 160 | 0.0 | 0.9 | 0.00 | 0.00 | 0.00 | 38 | 1005.7 |
| 20260506032034 | 69 | 160 | 0.0 | 0.9 | 0.00 | 0.00 | 0.00 | 38 | 1005.7 |
| 20260506031938 | 69 | 160 | 0.0 | 0.9 | 0.00 | 0.00 | 0.00 | 38 | 1005.7 |
| 20260506031838 | 69 | 160 | 0.0 | 0.9 | 0.00 | 0.00 | 0.00 | 38 | 1005.7 |
| 20260506031734 | 69 | 160 | 0.0 | 0.9 | 0.00 | 0.00 | 0.00 | 38 | 1005.8 |
| 20260506031612 | 69 | 160 | 0.0 | 0.9 | 0.00 | 0.00 | 0.00 | 38 | 1005.7 |
| 20260506031511 | 69 | 157 | 0.0 | 0.9 | 0.00 | 0.00 | 0.00 | 38 | 1005.7 |
| 20260506031410 | 69 | 171 | 0.0 | 0.9 | 0.00 | 0.00 | 0.00 | 38 | 1005.7 |
| 20260506031311 | 69 | 210 | 0.0 | 0.9 | 0.00 | 0.00 | 0.00 | 38 | 1005.8 |
| 20260506031215 | 69 | 221 | 0.0 | 0.9 | 0.00 | 0.00 | 0.00 | 38 | 1005.5 |
| 20260506031121 | 69 | 221 | 0.0 | 0.0 | 0.00 | 0.00 | 0.00 | 38 | 1005.5 |
| 20260506031016 | 69 | 221 | 0.0 | 0.0 | 0.00 | 0.00 | 0.00 | 38 | 1005.5 |
| 20260506030912 | 69 | 221 | 0.0 | 0.0 | 0.00 | 0.00 | 0.00 | 38 | 1005.5 |
| 20260506030802 | 69 | 221 | 0.0 | 0.0 | 0.00 | 0.00 | 0.00 | 38 | 1005.6 |
| 20260506030651 | 69 | 221 | 0.0 | 0.0 | 0.00 | 0.00 | 0.00 | 38 | 1005.6 |
| 20260506030542 | 69 | 221 | 0.0 | 0.9 | 0.00 | 0.00 | 0.00 | 37 | 1005.6 |
| 20260506030441 | 69 | 221 | 0.0 | 0.9 | 0.00 | 0.00 | 0.00 | 37 | 1005.6 |
| 20260506030341 | 69 | 221 | 0.0 | 0.9 | 0.00 | 0.00 | 0.00 | 37 | 1005.6 |
| 20260506030242 | 69 | 221 | 0.0 | 0.9 | 0.00 | 0.00 | 0.00 | 37 | 1005.6 |
| 20260506030140 | 69 | 233 | 0.0 | 0.9 | 0.00 | 0.00 | 0.00 | 37 | 1005.6 |
| 20260506030040 | 70 | 233 | 0.0 | 0.9 | 0.00 | 0.00 | 0.00 | 37 | 1005.6 |
| 20260506025945 | 70 | 234 | 0.0 | 0.9 | 0.00 | 0.00 | 0.00 | 37 | 1005.6 |
| 20260506025833 | 70 | 213 | 0.0 | 0.9 | 0.00 | 0.00 | 0.00 | 37 | 1005.6 |
| 20260506025735 | 70 | 212 | 0.0 | 1.7 | 0.00 | 0.00 | 0.00 | 36 | 1005.7 |
| 20260506025623 | 70 | 214 | 0.0 | 1.7 | 0.00 | 0.00 | 0.00 | 36 | 1005.7 |
| 20260506025520 | 70 | 213 | 0.0 | 1.7 | 0.00 | 0.00 | 0.00 | 36 | 1005.8 |
| 20260506025411 | 70 | 223 | 0.0 | 1.7 | 0.00 | 0.00 | 0.00 | 36 | 1005.8 |
| 20260506025311 | 70 | 223 | 0.0 | 1.7 | 0.00 | 0.00 | 0.00 | 36 | 1005.8 |
| 20260506025211 | 70 | 219 | 0.0 | 1.7 | 0.00 | 0.00 | 0.00 | 36 | 1005.8 |
| 20260506025059 | 70 | 217 | 0.0 | 1.7 | 0.00 | 0.00 | 0.00 | 36 | 1005.8 |
| 20260506024958 | 70 | 197 | 0.0 | 1.7 | 0.00 | 0.00 | 0.00 | 36 | 1005.9 |
| 20260506024847 | 70 | 188 | 0.0 | 1.7 | 0.00 | 0.00 | 0.00 | 36 | 1005.9 |
| 20260506024752 | 70 | 222 | 0.0 | 0.9 | 0.00 | 0.00 | 0.00 | 36 | 1005.9 |
| 20260506024650 | 71 | 208 | 0.0 | 0.9 | 0.00 | 0.00 | 0.00 | 35 | 1005.9 |
| 20260506024542 | 71 | 213 | 0.0 | 1.7 | 0.00 | 0.00 | 0.00 | 35 | 1005.9 |
| 20260506024438 | 71 | 217 | 0.0 | 1.7 | 0.00 | 0.00 | 0.00 | 35 | 1005.9 |
| 20260506024341 | 71 | 223 | 0.0 | 1.7 | 0.00 | 0.00 | 0.00 | 35 | 1005.9 |
| 20260506024244 | 71 | 223 | 0.0 | 1.7 | 0.00 | 0.00 | 0.00 | 35 | 1005.8 |
| 20260506024110 | 71 | 223 | 0.0 | 3.5 | 0.00 | 0.00 | 0.00 | 35 | 1005.9 |
| 20260506024013 | 71 | 227 | 0.0 | 3.5 | 0.00 | 0.00 | 0.00 | 35 | 1005.9 |
| 20260506023912 | 71 | 227 | 0.0 | 3.5 | 0.00 | 0.00 | 0.00 | 35 | 1005.9 |
| 20260506023810 | 71 | 229 | 0.0 | 3.5 | 0.00 | 0.00 | 0.00 | 35 | 1005.9 |
| 20260506023704 | 71 | 225 | 0.9 | 3.5 | 0.00 | 0.00 | 0.00 | 35 | 1005.9 |
| 20260506023556 | 71 | 242 | 0.9 | 3.5 | 0.00 | 0.00 | 0.00 | 35 | 1005.9 |
| 20260506023506 | 71 | 250 | 0.9 | 3.5 | 0.00 | 0.00 | 0.00 | 35 | 1005.9 |
| 20260506023349 | 71 | 210 | 0.9 | 3.5 | 0.00 | 0.00 | 0.00 | 35 | 1005.9 |
| 20260506023243 | 71 | 234 | 0.9 | 3.5 | 0.00 | 0.00 | 0.00 | 34 | 1005.9 |
| 20260506023133 | 71 | 173 | 0.9 | 4.3 | 0.00 | 0.00 | 0.00 | 34 | 1005.9 |
| 20260506023036 | 71 | 219 | 0.9 | 4.3 | 0.00 | 0.00 | 0.00 | 35 | 1005.9 |
| 20260506022937 | 71 | 210 | 0.9 | 4.3 | 0.00 | 0.00 | 0.00 | 35 | 1005.9 |
| 20260506022834 | 71 | 212 | 0.9 | 6.1 | 0.00 | 0.00 | 0.00 | 35 | 1005.9 |
| 20260506022735 | 71 | 195 | 0.9 | 6.1 | 0.00 | 0.00 | 0.00 | 34 | 1005.7 |
| 20260506022632 | 71 | 228 | 0.9 | 6.1 | 0.00 | 0.00 | 0.00 | 34 | 1005.7 |
| 20260506022530 | 71 | 236 | 0.9 | 6.1 | 0.00 | 0.00 | 0.00 | 34 | 1005.7 |
| 20260506022425 | 71 | 209 | 0.9 | 6.1 | 0.00 | 0.00 | 0.00 | 34 | 1005.7 |
| 20260506022321 | 71 | 229 | 1.7 | 6.1 | 0.00 | 0.00 | 0.00 | 34 | 1005.7 |
| 20260506022222 | 71 | 211 | 1.7 | 6.1 | 0.00 | 0.00 | 0.00 | 34 | 1005.7 |
| 20260506022123 | 72 | 221 | 1.7 | 6.1 | 0.00 | 0.00 | 0.00 | 34 | 1005.7 |
| 20260506022018 | 72 | 207 | 0.9 | 6.1 | 0.00 | 0.00 | 0.00 | 34 | 1005.8 |
| 20260506021916 | 72 | 229 | 0.9 | 6.1 | 0.00 | 0.00 | 0.00 | 34 | 1005.8 |
| 20260506021820 | 72 | 221 | 0.9 | 4.3 | 0.00 | 0.00 | 0.00 | 34 | 1005.8 |
| 20260506021719 | 72 | 189 | 1.7 | 6.1 | 0.00 | 0.00 | 0.00 | 34 | 1005.8 |
| 20260506021614 | 72 | 244 | 1.7 | 6.1 | 0.00 | 0.00 | 0.00 | 33 | 1005.8 |
| 20260506021513 | 72 | 237 | 1.7 | 6.1 | 0.00 | 0.00 | 0.00 | 33 | 1005.8 |
| 20260506021413 | 72 | 209 | 1.7 | 6.1 | 0.00 | 0.00 | 0.00 | 33 | 1005.8 |
| 20260506021310 | 72 | 242 | 1.7 | 6.1 | 0.00 | 0.00 | 0.00 | 33 | 1005.8 |
| 20260506021206 | 72 | 260 | 1.7 | 6.1 | 0.00 | 0.00 | 0.00 | 33 | 1006.2 |
| 20260506021110 | 72 | 248 | 1.7 | 6.1 | 0.00 | 0.00 | 0.00 | 33 | 1006.2 |
| 20260506021010 | 72 | 246 | 2.6 | 6.1 | 0.00 | 0.00 | 0.00 | 33 | 1006.2 |
| 20260506020906 | 72 | 249 | 2.6 | 6.1 | 0.00 | 0.00 | 0.00 | 33 | 1006.2 |
| 20260506020802 | 72 | 231 | 2.6 | 6.1 | 0.00 | 0.00 | 0.00 | 33 | 1006.2 |
| 20260506020712 | 72 | 238 | 1.7 | 6.1 | 0.00 | 0.00 | 0.00 | 33 | 1006.2 |
| 20260506020606 | 72 | 227 | 2.6 | 6.1 | 0.00 | 0.00 | 0.00 | 33 | 1006.2 |
| 20260506020500 | 72 | 236 | 2.6 | 6.1 | 0.00 | 0.00 | 0.00 | 32 | 1006.2 |
| 20260506020357 | 73 | 221 | 2.6 | 6.1 | 0.00 | 0.00 | 0.00 | 32 | 1006.4 |
| 20260506020255 | 73 | 230 | 2.6 | 7.0 | 0.00 | 0.00 | 0.00 | 32 | 1006.4 |
| 20260506020151 | 73 | 262 | 2.6 | 7.0 | 0.00 | 0.00 | 0.00 | 32 | 1006.4 |
| 20260506020051 | 73 | 236 | 2.6 | 7.0 | 0.00 | 0.00 | 0.00 | 32 | 1006.4 |
| 20260506015948 | 73 | 246 | 2.6 | 7.0 | 0.00 | 0.00 | 0.00 | 32 | 1006.4 |
| 20260506015846 | 73 | 235 | 2.6 | 7.0 | 0.00 | 0.00 | 0.00 | 32 | 1006.4 |
| 20260506015748 | 73 | 234 | 2.6 | 7.0 | 0.00 | 0.00 | 0.00 | 31 | 1006.5 |
| 20260506015645 | 73 | 227 | 2.6 | 7.0 | 0.00 | 0.00 | 0.00 | 31 | 1006.4 |
| 20260506015540 | 73 | 222 | 2.6 | 7.0 | 0.00 | 0.00 | 0.00 | 31 | 1006.4 |
| 20260506015444 | 73 | 234 | 2.6 | 7.0 | 0.00 | 0.00 | 0.00 | 31 | 1006.4 |
| 20260506015337 | 73 | 226 | 3.5 | 7.0 | 0.00 | 0.00 | 0.00 | 31 | 1006.4 |
| 20260506015242 | 73 | 219 | 3.5 | 7.0 | 0.00 | 0.00 | 0.00 | 31 | 1006.4 |
| 20260506015142 | 73 | 212 | 3.5 | 7.0 | 0.00 | 0.00 | 0.00 | 31 | 1006.5 |
| 20260506015041 | 74 | 232 | 3.5 | 7.0 | 0.00 | 0.00 | 0.00 | 31 | 1006.5 |
| 20260506014934 | 74 | 232 | 3.5 | 7.0 | 0.00 | 0.00 | 0.00 | 31 | 1006.5 |
| 20260506014837 | 74 | 122 | 3.5 | 7.8 | 0.00 | 0.00 | 0.00 | 31 | 1006.5 |
| 20260506014737 | 74 | 224 | 3.5 | 7.8 | 0.00 | 0.00 | 0.00 | 30 | 1006.5 |
| 20260506014632 | 74 | 230 | 3.5 | 7.8 | 0.00 | 0.00 | 0.00 | 30 | 1006.5 |
| 20260506014535 | 74 | 219 | 3.5 | 7.8 | 0.00 | 0.00 | 0.00 | 30 | 1006.5 |
| 20260506014425 | 74 | 247 | 3.5 | 8.7 | 0.00 | 0.00 | 0.00 | 30 | 1006.5 |
| 20260506014321 | 74 | 257 | 3.5 | 8.7 | 0.00 | 0.00 | 0.00 | 30 | 1006.6 |
| 20260506014216 | 74 | 231 | 3.5 | 8.7 | 0.00 | 0.00 | 0.00 | 30 | 1006.2 |
| 20260506014110 | 74 | 221 | 4.3 | 8.7 | 0.00 | 0.00 | 0.00 | 30 | 1006.2 |
| 20260506014007 | 74 | 193 | 4.3 | 8.7 | 0.00 | 0.00 | 0.00 | 29 | 1006.2 |
| 20260506013909 | 74 | 231 | 3.5 | 8.7 | 0.00 | 0.00 | 0.00 | 29 | 1006.4 |
| 20260506013810 | 74 | 212 | 3.5 | 8.7 | 0.00 | 0.00 | 0.00 | 29 | 1006.4 |
| 20260506013708 | 74 | 212 | 4.3 | 8.7 | 0.00 | 0.00 | 0.00 | 29 | 1006.4 |
| 20260506013611 | 74 | 225 | 4.3 | 9.6 | 0.00 | 0.00 | 0.00 | 29 | 1006.4 |
| 20260506013514 | 75 | 243 | 4.3 | 9.6 | 0.00 | 0.00 | 0.00 | 29 | 1006.4 |
| 20260506013411 | 75 | 165 | 4.3 | 9.6 | 0.00 | 0.00 | 0.00 | 29 | 1006.4 |
| 20260506013302 | 75 | 215 | 4.3 | 9.6 | 0.00 | 0.00 | 0.00 | 29 | 1006.4 |
| 20260506013206 | 75 | 213 | 4.3 | 9.6 | 0.00 | 0.00 | 0.00 | 29 | 1006.4 |
| 20260506013102 | 75 | 238 | 4.3 | 9.6 | 0.00 | 0.00 | 0.00 | 29 | 1006.4 |
| 20260506013005 | 75 | 238 | 4.3 | 9.6 | 0.00 | 0.00 | 0.00 | 29 | 1006.4 |
| 20260506012854 | 75 | 242 | 4.3 | 9.6 | 0.00 | 0.00 | 0.00 | 29 | 1006.4 |
| 20260506012748 | 75 | 222 | 4.3 | 9.6 | 0.00 | 0.00 | 0.00 | 29 | 1006.5 |
| 20260506012653 | 75 | 217 | 4.3 | 9.6 | 0.00 | 0.00 | 0.00 | 28 | 1006.6 |
| 20260506012553 | 75 | 227 | 3.5 | 8.7 | 0.00 | 0.00 | 0.00 | 28 | 1006.6 |
| 20260506012452 | 75 | 245 | 3.5 | 8.7 | 0.00 | 0.00 | 0.00 | 28 | 1006.6 |
| 20260506012336 | 75 | 213 | 3.5 | 8.7 | 0.00 | 0.00 | 0.00 | 28 | 1006.6 |
| 20260506012237 | 75 | 190 | 4.3 | 8.7 | 0.00 | 0.00 | 0.00 | 28 | 1006.6 |
| 20260506012134 | 75 | 238 | 3.5 | 8.7 | 0.00 | 0.00 | 0.00 | 28 | 1006.6 |
| 20260506012040 | 75 | 215 | 3.5 | 12.2 | 0.00 | 0.00 | 0.00 | 28 | 1006.6 |
| 20260506011937 | 75 | 223 | 3.5 | 12.2 | 0.00 | 0.00 | 0.00 | 28 | 1006.6 |
| 20260506011831 | 75 | 275 | 4.3 | 12.2 | 0.00 | 0.00 | 0.00 | 28 | 1006.6 |
| 20260506011730 | 75 | 250 | 4.3 | 12.2 | 0.00 | 0.00 | 0.00 | 28 | 1006.7 |
| 20260506011625 | 75 | 261 | 4.3 | 12.2 | 0.00 | 0.00 | 0.00 | 27 | 1006.7 |
| 20260506011526 | 76 | 268 | 4.3 | 12.2 | 0.00 | 0.00 | 0.00 | 27 | 1006.7 |
| 20260506011425 | 76 | 288 | 4.3 | 12.2 | 0.00 | 0.00 | 0.00 | 27 | 1006.7 |
| 20260506011328 | 76 | 204 | 4.3 | 12.2 | 0.00 | 0.00 | 0.00 | 27 | 1006.7 |
| 20260506011217 | 76 | 250 | 4.3 | 12.2 | 0.00 | 0.00 | 0.00 | 27 | 1006.9 |
| 20260506011126 | 76 | 276 | 4.3 | 9.6 | 0.00 | 0.00 | 0.00 | 27 | 1006.9 |
| 20260506011022 | 76 | 277 | 5.2 | 9.6 | 0.00 | 0.00 | 0.00 | 27 | 1006.9 |
| 20260506010916 | 76 | 212 | 5.2 | 11.3 | 0.00 | 0.00 | 0.00 | 27 | 1006.9 |
| 20260506010818 | 76 | 204 | 5.2 | 11.3 | 0.00 | 0.00 | 0.00 | 27 | 1006.9 |
| 20260506010712 | 76 | 259 | 5.2 | 11.3 | 0.00 | 0.00 | 0.00 | 27 | 1006.9 |
| 20260506010615 | 76 | 257 | 5.2 | 11.3 | 0.00 | 0.00 | 0.00 | 27 | 1006.9 |
| 20260506010509 | 76 | 221 | 6.1 | 12.2 | 0.00 | 0.00 | 0.00 | 27 | 1006.9 |
| 20260506010410 | 76 | 252 | 6.1 | 12.2 | 0.00 | 0.00 | 0.00 | 27 | 1006.9 |
| 20260506010310 | 76 | 187 | 7.0 | 12.2 | 0.00 | 0.00 | 0.00 | 27 | 1007.0 |
| 20260506010213 | 76 | 273 | 7.0 | 12.2 | 0.00 | 0.00 | 0.00 | 27 | 1007.0 |
| 20260506010114 | 76 | 244 | 7.0 | 12.2 | 0.00 | 0.00 | 0.00 | 27 | 1007.0 |
| 20260506010010 | 76 | 261 | 7.0 | 13.0 | 0.00 | 0.00 | 0.00 | 26 | 1007.0 |
| 20260506005903 | 76 | 243 | 7.0 | 13.0 | 0.00 | 0.00 | 0.00 | 26 | 1007.0 |
| 20260506005807 | 76 | 279 | 7.0 | 13.0 | 0.00 | 0.00 | 0.00 | 26 | 1007.0 |
| 20260506005709 | 76 | 222 | 7.8 | 13.0 | 0.00 | 0.00 | 0.00 | 26 | 1007.0 |
| 20260506005555 | 76 | 249 | 7.8 | 13.9 | 0.00 | 0.00 | 0.00 | 26 | 1007.0 |
| 20260506005453 | 76 | 229 | 7.8 | 13.9 | 0.00 | 0.00 | 0.00 | 26 | 1007.0 |
| 20260506005401 | 76 | 209 | 7.8 | 13.9 | 0.00 | 0.00 | 0.00 | 26 | 1007.0 |
| 20260506005255 | 76 | 199 | 7.8 | 13.9 | 0.00 | 0.00 | 0.00 | 26 | 1007.0 |
| 20260506005201 | 76 | 226 | 7.8 | 13.9 | 0.00 | 0.00 | 0.00 | 26 | 1007.0 |
| 20260506005055 | 76 | 221 | 7.8 | 17.4 | 0.00 | 0.00 | 0.00 | 26 | 1007.0 |
| 20260506004955 | 76 | 280 | 7.8 | 17.4 | 0.00 | 0.00 | 0.00 | 26 | 1007.0 |
| 20260506004856 | 76 | 244 | 7.8 | 17.4 | 0.00 | 0.00 | 0.00 | 26 | 1007.0 |
| 20260506004747 | 76 | 244 | 7.8 | 17.4 | 0.00 | 0.00 | 0.00 | 26 | 1007.0 |
| 20260506004646 | 76 | 194 | 7.8 | 17.4 | 0.00 | 0.00 | 0.00 | 26 | 1007.1 |
| 20260506004544 | 77 | 238 | 7.8 | 17.4 | 0.00 | 0.00 | 0.00 | 26 | 1007.1 |
| 20260506004441 | 77 | 250 | 7.8 | 17.4 | 0.00 | 0.00 | 0.00 | 26 | 1007.1 |
| 20260506004349 | 77 | 264 | 7.8 | 17.4 | 0.00 | 0.00 | 0.00 | 26 | 1007.1 |
| 20260506004237 | 77 | 277 | 8.7 | 17.4 | 0.00 | 0.00 | 0.00 | 25 | 1007.1 |
| 20260506004136 | 77 | 248 | 8.7 | 17.4 | 0.00 | 0.00 | 0.00 | 25 | 1006.9 |
| 20260506004039 | 77 | 227 | 8.7 | 17.4 | 0.00 | 0.00 | 0.00 | 26 | 1006.9 |
| 20260506003941 | 77 | 243 | 8.7 | 17.4 | 0.00 | 0.00 | 0.00 | 26 | 1006.9 |
| 20260506003835 | 77 | 247 | 8.7 | 17.4 | 0.00 | 0.00 | 0.00 | 26 | 1006.9 |
| 20260506003732 | 77 | 270 | 8.7 | 17.4 | 0.00 | 0.00 | 0.00 | 26 | 1006.9 |
| 20260506003636 | 77 | 271 | 9.6 | 17.4 | 0.00 | 0.00 | 0.00 | 25 | 1006.9 |
| 20260506003531 | 77 | 268 | 9.6 | 17.4 | 0.00 | 0.00 | 0.00 | 25 | 1006.9 |
| 20260506003435 | 77 | 279 | 8.7 | 17.4 | 0.00 | 0.00 | 0.00 | 26 | 1006.9 |
| 20260506003323 | 77 | 273 | 8.7 | 17.4 | 0.00 | 0.00 | 0.00 | 26 | 1006.9 |
| 20260506003230 | 77 | 263 | 8.7 | 17.4 | 0.00 | 0.00 | 0.00 | 26 | 1006.9 |
| 20260506003119 | 77 | 284 | 8.7 | 16.5 | 0.00 | 0.00 | 0.00 | 26 | 1006.9 |
| 20260506003020 | 77 | 248 | 7.8 | 16.5 | 0.00 | 0.00 | 0.00 | 26 | 1006.9 |
| 20260506002925 | 77 | 253 | 7.8 | 16.5 | 0.00 | 0.00 | 0.00 | 26 | 1006.9 |
| 20260506002810 | 77 | 216 | 7.8 | 16.5 | 0.00 | 0.00 | 0.00 | 26 | 1006.9 |
| 20260506002709 | 77 | 281 | 7.8 | 16.5 | 0.00 | 0.00 | 0.00 | 26 | 1007.0 |
| 20260506002611 | 77 | 257 | 7.8 | 16.5 | 0.00 | 0.00 | 0.00 | 26 | 1007.0 |
| 20260506002508 | 77 | 246 | 8.7 | 18.2 | 0.00 | 0.00 | 0.00 | 27 | 1007.0 |
| 20260506002412 | 77 | 238 | 8.7 | 19.1 | 0.00 | 0.00 | 0.00 | 27 | 1006.9 |
| 20260506002314 | 77 | 265 | 8.7 | 19.1 | 0.00 | 0.00 | 0.00 | 27 | 1006.9 |
| 20260506002211 | 77 | 233 | 8.7 | 19.1 | 0.00 | 0.00 | 0.00 | 26 | 1006.9 |
| 20260506002111 | 77 | 282 | 8.7 | 19.1 | 0.00 | 0.00 | 0.00 | 26 | 1006.9 |
| 20260506002003 | 77 | 222 | 8.7 | 19.1 | 0.00 | 0.00 | 0.00 | 26 | 1006.9 |
| 20260506001904 | 77 | 259 | 9.6 | 19.1 | 0.00 | 0.00 | 0.00 | 26 | 1006.9 |
| 20260506001759 | 77 | 252 | 9.6 | 19.1 | 0.00 | 0.00 | 0.00 | 26 | 1006.9 |
| 20260506001713 | 77 | 238 | 9.6 | 25.2 | 0.00 | 0.00 | 0.00 | 26 | 1006.9 |
| 20260506001557 | 77 | 259 | 9.6 | 25.2 | 0.00 | 0.00 | 0.00 | 26 | 1006.9 |
| 20260506001458 | 77 | 245 | 8.7 | 25.2 | 0.00 | 0.00 | 0.00 | 26 | 1007.0 |
| 20260506001355 | 77 | 244 | 8.7 | 25.2 | 0.00 | 0.00 | 0.00 | 26 | 1007.0 |
| 20260506001257 | 77 | 279 | 8.7 | 25.2 | 0.00 | 0.00 | 0.00 | 26 | 1007.0 |
| 20260506001155 | 77 | 225 | 9.6 | 25.2 | 0.00 | 0.00 | 0.00 | 26 | 1006.9 |
| 20260506001052 | 77 | 173 | 9.6 | 25.2 | 0.00 | 0.00 | 0.00 | 26 | 1006.9 |
| 20260506000952 | 77 | 234 | 9.6 | 25.2 | 0.00 | 0.00 | 0.00 | 25 | 1006.9 |
| 20260506000857 | 78 | 249 | 9.6 | 25.2 | 0.00 | 0.00 | 0.00 | 25 | 1007.0 |
| 20260506000740 | 78 | 221 | 9.6 | 19.1 | 0.00 | 0.00 | 0.00 | 25 | 1007.0 |
| 20260506000639 | 78 | 254 | 9.6 | 19.1 | 0.00 | 0.00 | 0.00 | 25 | 1007.0 |
| 20260506000540 | 78 | 257 | 9.6 | 19.1 | 0.00 | 0.00 | 0.00 | 25 | 1007.0 |
| 20260506000440 | 78 | 267 | 10.4 | 19.1 | 0.00 | 0.00 | 0.00 | 25 | 1007.0 |
| 20260506000341 | 78 | 232 | 10.4 | 19.1 | 0.00 | 0.00 | 0.00 | 25 | 1007.0 |
| 20260506000240 | 78 | 221 | 10.4 | 19.1 | 0.00 | 0.00 | 0.00 | 25 | 1007.0 |
| 20260506000139 | 78 | 237 | 10.4 | 19.1 | 0.00 | 0.00 | 0.00 | 25 | 1007.0 |
| 20260506000045 | 78 | 252 | 10.4 | 19.1 | 0.00 | 0.00 | 0.00 | 25 | 1007.0 |
| 20260505235938 | 78 | 258 | 10.4 | 20.0 | 0.00 | 0.00 | 0.00 | 25 | 1007.1 |
| 20260505235845 | 78 | 260 | 10.4 | 20.0 | 0.00 | 0.00 | 0.00 | 25 | 1007.1 |
| 20260505235725 | 78 | 230 | 11.3 | 20.0 | 0.00 | 0.00 | 0.00 | 25 | 1007.0 |
| 20260505235627 | 78 | 275 | 11.3 | 20.0 | 0.00 | 0.00 | 0.00 | 25 | 1007.1 |
| 20260505235521 | 79 | 254 | 11.3 | 24.3 | 0.00 | 0.00 | 0.00 | 25 | 1007.1 |
| 20260505235432 | 79 | 277 | 11.3 | 24.3 | 0.00 | 0.00 | 0.00 | 25 | 1007.1 |
| 20260505235320 | 79 | 274 | 11.3 | 24.3 | 0.00 | 0.00 | 0.00 | 26 | 1007.1 |
| 20260505235217 | 79 | 220 | 11.3 | 24.3 | 0.00 | 0.00 | 0.00 | 26 | 1007.1 |
| 20260505235114 | 79 | 321 | 11.3 | 24.3 | 0.00 | 0.00 | 0.00 | 26 | 1007.1 |
| 20260505235015 | 78 | 146 | 11.3 | 24.3 | 0.00 | 0.00 | 0.00 | 25 | 1007.1 |
| 20260505234912 | 78 | 227 | 11.3 | 24.3 | 0.00 | 0.00 | 0.00 | 25 | 1007.1 |
| 20260505234812 | 78 | 242 | 11.3 | 24.3 | 0.00 | 0.00 | 0.00 | 25 | 1007.1 |
| 20260505234706 | 78 | 277 | 11.3 | 24.3 | 0.00 | 0.00 | 0.00 | 25 | 1007.1 |
| 20260505234605 | 78 | 251 | 10.4 | 20.9 | 0.00 | 0.00 | 0.00 | 25 | 1007.0 |
| 20260505234459 | 78 | 209 | 9.6 | 20.0 | 0.00 | 0.00 | 0.00 | 26 | 1007.0 |
| 20260505234403 | 78 | 304 | 9.6 | 20.0 | 0.00 | 0.00 | 0.00 | 25 | 1007.0 |
| 20260505234241 | 78 | 205 | 9.6 | 20.0 | 0.00 | 0.00 | 0.00 | 26 | 1007.0 |
| 20260505234140 | 78 | 179 | 9.6 | 20.0 | 0.00 | 0.00 | 0.00 | 26 | 1007.1 |
| 20260505234042 | 78 | 261 | 9.6 | 20.0 | 0.00 | 0.00 | 0.00 | 26 | 1007.1 |
| 20260505233941 | 78 | 240 | 8.7 | 20.0 | 0.00 | 0.00 | 0.00 | 26 | 1007.1 |
| 20260505233834 | 78 | 254 | 8.7 | 19.1 | 0.00 | 0.00 | 0.00 | 27 | 1007.1 |
| 20260505233732 | 78 | 232 | 8.7 | 19.1 | 0.00 | 0.00 | 0.00 | 27 | 1007.1 |
| 20260505233628 | 78 | 237 | 9.6 | 20.0 | 0.00 | 0.00 | 0.00 | 27 | 1007.1 |
| 20260505233532 | 78 | 239 | 8.7 | 20.0 | 0.00 | 0.00 | 0.00 | 27 | 1007.0 |
| 20260505233433 | 78 | 269 | 9.6 | 20.0 | 0.00 | 0.00 | 0.00 | 28 | 1007.0 |
| 20260505233333 | 77 | 269 | 8.7 | 20.0 | 0.00 | 0.00 | 0.00 | 28 | 1007.0 |
| 20260505233223 | 77 | 265 | 8.7 | 20.0 | 0.00 | 0.00 | 0.00 | 28 | 1007.0 |
| 20260505233123 | 77 | 288 | 8.7 | 20.0 | 0.00 | 0.00 | 0.00 | 28 | 1007.0 |
| 20260505233029 | 77 | 54 | 8.7 | 20.0 | 0.00 | 0.00 | 0.00 | 28 | 1006.9 |
| 20260505232927 | 77 | 238 | 8.7 | 20.0 | 0.00 | 0.00 | 0.00 | 28 | 1006.9 |
| 20260505232821 | 77 | 229 | 8.7 | 20.0 | 0.00 | 0.00 | 0.00 | 28 | 1006.9 |
| 20260505232759 | 77 | 236 | 8.7 | 20.0 | 0.00 | 0.00 | 0.00 | 28 | 1006.9 |
| 20260505232617 | 77 | 271 | 8.7 | 16.5 | 0.00 | 0.00 | 0.00 | 28 | 1006.9 |
| 20260505232514 | 77 | 244 | 8.7 | 16.5 | 0.00 | 0.00 | 0.00 | 28 | 1006.9 |
| 20260505232421 | 77 | 257 | 8.7 | 16.5 | 0.00 | 0.00 | 0.00 | 28 | 1006.9 |
| 20260505232319 | 77 | 289 | 8.7 | 16.5 | 0.00 | 0.00 | 0.00 | 28 | 1006.9 |
| 20260505232218 | 77 | 238 | 8.7 | 16.5 | 0.00 | 0.00 | 0.00 | 28 | 1006.9 |
| 20260505232116 | 77 | 267 | 8.7 | 16.5 | 0.00 | 0.00 | 0.00 | 28 | 1006.9 |
| 20260505232018 | 77 | 220 | 8.7 | 16.5 | 0.00 | 0.00 | 0.00 | 28 | 1006.9 |
| 20260505231911 | 77 | 275 | 7.8 | 16.5 | 0.00 | 0.00 | 0.00 | 28 | 1006.9 |
| 20260505231813 | 77 | 211 | 7.8 | 16.5 | 0.00 | 0.00 | 0.00 | 28 | 1007.0 |
| 20260505231701 | 77 | 240 | 7.0 | 16.5 | 0.00 | 0.00 | 0.00 | 28 | 1007.0 |
| 20260505231603 | 77 | 223 | 7.0 | 16.5 | 0.00 | 0.00 | 0.00 | 29 | 1007.0 |
| 20260505231459 | 77 | 261 | 7.0 | 16.5 | 0.00 | 0.00 | 0.00 | 29 | 1007.0 |
| 20260505231359 | 77 | 180 | 7.0 | 16.5 | 0.00 | 0.00 | 0.00 | 29 | 1007.0 |
| 20260505231300 | 77 | 240 | 7.8 | 16.5 | 0.00 | 0.00 | 0.00 | 29 | 1007.0 |
| 20260505231158 | 78 | 252 | 7.8 | 16.5 | 0.00 | 0.00 | 0.00 | 28 | 1007.2 |
| 20260505231059 | 78 | 301 | 7.8 | 16.5 | 0.00 | 0.00 | 0.00 | 29 | 1007.2 |
| 20260505230958 | 78 | 291 | 7.8 | 16.5 | 0.00 | 0.00 | 0.00 | 29 | 1007.2 |
| 20260505230855 | 78 | 249 | 7.8 | 16.5 | 0.00 | 0.00 | 0.00 | 29 | 1007.2 |
| 20260505230758 | 78 | 249 | 7.8 | 16.5 | 0.00 | 0.00 | 0.00 | 28 | 1007.4 |
| 20260505230653 | 78 | 245 | 7.8 | 16.5 | 0.00 | 0.00 | 0.00 | 28 | 1007.4 |
| 20260505230549 | 78 | 31 | 7.8 | 16.5 | 0.00 | 0.00 | 0.00 | 29 | 1007.4 |
| 20260505230452 | 78 | 274 | 7.8 | 16.5 | 0.00 | 0.00 | 0.00 | 29 | 1007.4 |
| 20260505230339 | 78 | 268 | 7.8 | 16.5 | 0.00 | 0.00 | 0.00 | 28 | 1007.5 |
| 20260505230242 | 79 | 305 | 7.8 | 16.5 | 0.00 | 0.00 | 0.00 | 28 | 1007.5 |
| 20260505230146 | 79 | 234 | 7.8 | 17.4 | 0.00 | 0.00 | 0.00 | 28 | 1007.5 |
| 20260505225931 | 78 | 198 | 7.8 | 17.4 | 0.00 | 0.00 | 0.00 | 29 | 1007.5 |
| 20260505225829 | 78 | 265 | 7.8 | 17.4 | 0.00 | 0.00 | 0.00 | 29 | 1007.5 |
| 20260505225731 | 78 | 242 | 8.7 | 17.4 | 0.00 | 0.00 | 0.00 | 29 | 1007.7 |
| 20260505225633 | 78 | 239 | 8.7 | 17.4 | 0.00 | 0.00 | 0.00 | 29 | 1007.7 |
| 20260505225521 | 78 | 231 | 8.7 | 17.4 | 0.00 | 0.00 | 0.00 | 29 | 1007.6 |
| 20260505225438 | 78 | 263 | 8.7 | 18.2 | 0.00 | 0.00 | 0.00 | 29 | 1007.6 |
| 20260505225311 | 78 | 277 | 8.7 | 18.2 | 0.00 | 0.00 | 0.00 | 29 | 1007.6 |
| 20260505225211 | 77 | 223 | 8.7 | 18.2 | 0.00 | 0.00 | 0.00 | 30 | 1007.5 |
| 20260505225108 | 77 | 224 | 8.7 | 18.2 | 0.00 | 0.00 | 0.00 | 30 | 1007.5 |
| 20260505225009 | 77 | 246 | 8.7 | 18.2 | 0.00 | 0.00 | 0.00 | 29 | 1007.5 |
| 20260505224908 | 77 | 237 | 9.6 | 18.2 | 0.00 | 0.00 | 0.00 | 29 | 1007.5 |
| 20260505224819 | 77 | 86 | 9.6 | 20.0 | 0.00 | 0.00 | 0.00 | 29 | 1007.4 |
| 20260505224708 | 77 | 257 | 8.7 | 20.0 | 0.00 | 0.00 | 0.00 | 29 | 1007.5 |
| 20260505224613 | 77 | 289 | 8.7 | 20.0 | 0.00 | 0.00 | 0.00 | 29 | 1007.5 |
| 20260505224513 | 77 | 237 | 8.7 | 20.0 | 0.00 | 0.00 | 0.00 | 30 | 1007.5 |
| 20260505224405 | 77 | 232 | 8.7 | 20.0 | 0.00 | 0.00 | 0.00 | 30 | 1007.5 |
| 20260505224305 | 77 | 252 | 8.7 | 20.0 | 0.00 | 0.00 | 0.00 | 30 | 1007.5 |
| 20260505224206 | 77 | 266 | 8.7 | 20.0 | 0.00 | 0.00 | 0.00 | 30 | 1007.5 |
| 20260505224105 | 77 | 237 | 9.6 | 20.0 | 0.00 | 0.00 | 0.00 | 29 | 1007.5 |
| 20260505224004 | 77 | 265 | 9.6 | 20.0 | 0.00 | 0.00 | 0.00 | 29 | 1007.5 |
| 20260505223900 | 77 | 241 | 8.7 | 20.0 | 0.00 | 0.00 | 0.00 | 29 | 1007.5 |
| 20260505223754 | 77 | 202 | 8.7 | 18.2 | 0.00 | 0.00 | 0.00 | 29 | 1007.5 |
| 20260505223653 | 77 | 257 | 8.7 | 18.2 | 0.00 | 0.00 | 0.00 | 30 | 1007.5 |
| 20260505223548 | 77 | 265 | 8.7 | 18.2 | 0.00 | 0.00 | 0.00 | 29 | 1007.5 |
| 20260505223444 | 77 | 277 | 8.7 | 18.2 | 0.00 | 0.00 | 0.00 | 29 | 1007.5 |
| 20260505223349 | 77 | 249 | 9.6 | 18.2 | 0.00 | 0.00 | 0.00 | 29 | 1007.5 |
| 20260505223249 | 77 | 257 | 8.7 | 17.4 | 0.00 | 0.00 | 0.00 | 29 | 1007.5 |
| 20260505223152 | 77 | 236 | 9.6 | 16.5 | 0.00 | 0.00 | 0.00 | 29 | 1007.5 |
| 20260505223045 | 77 | 268 | 9.6 | 16.5 | 0.00 | 0.00 | 0.00 | 29 | 1007.5 |
| 20260505222951 | 77 | 257 | 9.6 | 17.4 | 0.00 | 0.00 | 0.00 | 29 | 1007.5 |
| 20260505222848 | 77 | 277 | 10.4 | 20.9 | 0.00 | 0.00 | 0.00 | 29 | 1007.5 |
| 20260505222746 | 77 | 291 | 10.4 | 20.9 | 0.00 | 0.00 | 0.00 | 29 | 1007.5 |
| 20260505222642 | 78 | 242 | 10.4 | 20.9 | 0.00 | 0.00 | 0.00 | 29 | 1007.0 |
| 20260505222544 | 78 | 237 | 10.4 | 20.9 | 0.00 | 0.00 | 0.00 | 29 | 1007.0 |
| 20260505222438 | 78 | 267 | 10.4 | 20.9 | 0.00 | 0.00 | 0.00 | 29 | 1007.1 |
| 20260505222332 | 78 | 260 | 10.4 | 20.9 | 0.00 | 0.00 | 0.00 | 28 | 1007.0 |
| 20260505222231 | 78 | 276 | 10.4 | 20.9 | 0.00 | 0.00 | 0.00 | 28 | 1007.1 |
| 20260505222138 | 78 | 275 | 10.4 | 20.9 | 0.00 | 0.00 | 0.00 | 28 | 1007.1 |
| 20260505222033 | 78 | 261 | 10.4 | 20.9 | 0.00 | 0.00 | 0.00 | 28 | 1007.1 |
| 20260505221932 | 78 | 280 | 9.6 | 20.9 | 0.00 | 0.00 | 0.00 | 27 | 1007.1 |
| 20260505221827 | 78 | 307 | 9.6 | 20.0 | 0.00 | 0.00 | 0.00 | 27 | 1007.2 |
| 20260505221730 | 79 | 280 | 9.6 | 20.0 | 0.00 | 0.00 | 0.00 | 27 | 1007.2 |
| 20260505221629 | 79 | 284 | 9.6 | 20.0 | 0.00 | 0.00 | 0.00 | 27 | 1007.4 |
| 20260505221522 | 79 | 273 | 9.6 | 20.0 | 0.00 | 0.00 | 0.00 | 27 | 1007.4 |
| 20260505221427 | 79 | 263 | 9.6 | 20.0 | 0.00 | 0.00 | 0.00 | 27 | 1007.5 |
| 20260505221323 | 80 | 270 | 9.6 | 20.0 | 0.00 | 0.00 | 0.00 | 27 | 1007.5 |
| 20260505221226 | 80 | 260 | 9.6 | 20.0 | 0.00 | 0.00 | 0.00 | 28 | 1007.5 |
| 20260505221119 | 79 | 258 | 9.6 | 19.1 | 0.00 | 0.00 | 0.00 | 28 | 1007.4 |
| 20260505221053 | 79 | 240 | 9.6 | 19.1 | 0.00 | 0.00 | 0.00 | 28 | 1007.4 |
| 20260505220922 | 79 | 226 | 9.6 | 19.1 | 0.00 | 0.00 | 0.00 | 27 | 1007.4 |
| 20260505220816 | 79 | 246 | 8.7 | 19.1 | 0.00 | 0.00 | 0.00 | 27 | 1007.4 |
| 20260505220709 | 79 | 256 | 8.7 | 19.1 | 0.00 | 0.00 | 0.00 | 28 | 1007.4 |
| 20260505220611 | 79 | 289 | 8.7 | 19.1 | 0.00 | 0.00 | 0.00 | 28 | 1007.4 |
| 20260505220508 | 79 | 261 | 8.7 | 19.1 | 0.00 | 0.00 | 0.00 | 28 | 1007.4 |
| 20260505220402 | 79 | 260 | 8.7 | 19.1 | 0.00 | 0.00 | 0.00 | 27 | 1007.4 |
| 20260505220258 | 79 | 271 | 7.8 | 19.1 | 0.00 | 0.00 | 0.00 | 28 | 1007.4 |
| 20260505220159 | 79 | 229 | 7.8 | 19.1 | 0.00 | 0.00 | 0.00 | 28 | 1007.4 |
| 20260505220058 | 79 | 207 | 7.0 | 19.1 | 0.00 | 0.00 | 0.00 | 28 | 1007.5 |
| 20260505220004 | 79 | 291 | 7.0 | 19.1 | 0.00 | 0.00 | 0.00 | 27 | 1007.5 |
| 20260505215853 | 80 | 223 | 7.8 | 19.1 | 0.00 | 0.00 | 0.00 | 27 | 1007.5 |
| 20260505215742 | 79 | 244 | 8.7 | 19.1 | 0.00 | 0.00 | 0.00 | 28 | 1007.5 |
| 20260505215640 | 79 | 302 | 8.7 | 20.9 | 0.00 | 0.00 | 0.00 | 28 | 1007.8 |
| 20260505215536 | 79 | 291 | 7.8 | 20.9 | 0.00 | 0.00 | 0.00 | 28 | 1007.8 |
| 20260505215439 | 79 | 234 | 7.8 | 20.9 | 0.00 | 0.00 | 0.00 | 29 | 1007.8 |
| 20260505215339 | 79 | 267 | 8.7 | 20.9 | 0.00 | 0.00 | 0.00 | 29 | 1007.8 |
| 20260505215242 | 79 | 298 | 9.6 | 20.9 | 0.00 | 0.00 | 0.00 | 28 | 1007.7 |
| 20260505215137 | 78 | 285 | 9.6 | 20.9 | 0.00 | 0.00 | 0.00 | 28 | 1007.6 |
| 20260505215037 | 78 | 273 | 9.6 | 20.9 | 0.00 | 0.00 | 0.00 | 28 | 1007.6 |
| 20260505214939 | 78 | 194 | 10.4 | 20.9 | 0.00 | 0.00 | 0.00 | 28 | 1007.6 |
| 20260505214837 | 79 | 230 | 10.4 | 20.9 | 0.00 | 0.00 | 0.00 | 28 | 1007.7 |
| 20260505214737 | 79 | 250 | 10.4 | 20.9 | 0.00 | 0.00 | 0.00 | 28 | 1007.7 |
| 20260505214644 | 79 | 301 | 9.6 | 20.9 | 0.00 | 0.00 | 0.00 | 28 | 1007.7 |
| 20260505214539 | 79 | 227 | 9.6 | 19.1 | 0.00 | 0.00 | 0.00 | 29 | 1007.7 |
| 20260505214435 | 79 | 242 | 10.4 | 20.0 | 0.00 | 0.00 | 0.00 | 28 | 1007.7 |
| 20260505214333 | 79 | 238 | 10.4 | 20.0 | 0.00 | 0.00 | 0.00 | 28 | 1007.7 |
| 20260505214238 | 79 | 280 | 9.6 | 20.0 | 0.00 | 0.00 | 0.00 | 28 | 1007.5 |
| 20260505214140 | 79 | 217 | 9.6 | 20.0 | 0.00 | 0.00 | 0.00 | 28 | 1007.5 |
| 20260505214033 | 79 | 234 | 9.6 | 20.0 | 0.00 | 0.00 | 0.00 | 27 | 1007.5 |
| 20260505213935 | 79 | 257 | 10.4 | 20.0 | 0.00 | 0.00 | 0.00 | 28 | 1007.5 |
| 20260505213827 | 79 | 282 | 11.3 | 20.9 | 0.00 | 0.00 | 0.00 | 28 | 1007.5 |
| 20260505213720 | 79 | 265 | 11.3 | 20.9 | 0.00 | 0.00 | 0.00 | 28 | 1007.5 |
| 20260505213616 | 79 | 281 | 11.3 | 20.9 | 0.00 | 0.00 | 0.00 | 28 | 1007.5 |
| 20260505213513 | 79 | 313 | 11.3 | 20.9 | 0.00 | 0.00 | 0.00 | 28 | 1007.5 |
| 20260505213409 | 79 | 284 | 10.4 | 20.9 | 0.00 | 0.00 | 0.00 | 28 | 1007.5 |
| 20260505213314 | 79 | 225 | 11.3 | 20.9 | 0.00 | 0.00 | 0.00 | 27 | 1007.5 |
| 20260505213159 | 79 | 237 | 11.3 | 20.9 | 0.00 | 0.00 | 0.00 | 28 | 1007.4 |
| 20260505213054 | 79 | 262 | 11.3 | 20.9 | 0.00 | 0.00 | 0.00 | 28 | 1007.5 |
| 20260505213000 | 79 | 328 | 11.3 | 22.6 | 0.00 | 0.00 | 0.00 | 27 | 1007.5 |
| 20260505212856 | 79 | 282 | 11.3 | 22.6 | 0.00 | 0.00 | 0.00 | 27 | 1007.5 |
| 20260505212757 | 79 | 278 | 11.3 | 22.6 | 0.00 | 0.00 | 0.00 | 27 | 1007.5 |
| 20260505212654 | 80 | 265 | 11.3 | 22.6 | 0.00 | 0.00 | 0.00 | 27 | 1007.8 |
| 20260505212556 | 79 | 300 | 11.3 | 22.6 | 0.00 | 0.00 | 0.00 | 27 | 1007.7 |
| 20260505212451 | 79 | 221 | 12.2 | 22.6 | 0.00 | 0.00 | 0.00 | 27 | 1007.7 |
| 20260505212345 | 79 | 253 | 13.0 | 23.5 | 0.00 | 0.00 | 0.00 | 27 | 1007.7 |
| 20260505212238 | 79 | 278 | 13.0 | 23.5 | 0.00 | 0.00 | 0.00 | 27 | 1007.7 |
| 20260505212140 | 79 | 283 | 13.0 | 23.5 | 0.00 | 0.00 | 0.00 | 27 | 1007.7 |
| 20260505212037 | 79 | 260 | 13.9 | 23.5 | 0.00 | 0.00 | 0.00 | 26 | 1007.7 |
| 20260505211936 | 79 | 233 | 13.0 | 23.5 | 0.00 | 0.00 | 0.00 | 27 | 1007.7 |
| 20260505211839 | 79 | 294 | 13.0 | 23.5 | 0.00 | 0.00 | 0.00 | 27 | 1007.7 |
| 20260505211739 | 79 | 268 | 13.0 | 23.5 | 0.00 | 0.00 | 0.00 | 27 | 1007.7 |
| 20260505211639 | 79 | 232 | 12.2 | 23.5 | 0.00 | 0.00 | 0.00 | 26 | 1007.7 |
| 20260505211534 | 79 | 247 | 11.3 | 23.5 | 0.00 | 0.00 | 0.00 | 27 | 1007.7 |
| 20260505211439 | 80 | 262 | 11.3 | 23.5 | 0.00 | 0.00 | 0.00 | 26 | 1007.8 |
| 20260505211333 | 80 | 274 | 11.3 | 21.7 | 0.00 | 0.00 | 0.00 | 26 | 1007.8 |
| 20260505211238 | 80 | 269 | 11.3 | 21.7 | 0.00 | 0.00 | 0.00 | 27 | 1007.2 |
| 20260505211130 | 80 | 292 | 11.3 | 21.7 | 0.00 | 0.00 | 0.00 | 27 | 1007.2 |
| 20260505211034 | 80 | 273 | 11.3 | 21.7 | 0.00 | 0.00 | 0.00 | 27 | 1007.2 |
| 20260505210934 | 80 | 227 | 10.4 | 21.7 | 0.00 | 0.00 | 0.00 | 28 | 1007.1 |
| 20260505210831 | 79 | 276 | 11.3 | 21.7 | 0.00 | 0.00 | 0.00 | 28 | 1007.1 |
| 20260505210711 | 79 | 233 | 11.3 | 21.7 | 0.00 | 0.00 | 0.00 | 26 | 1007.0 |
| 20260505210611 | 79 | 270 | 11.3 | 21.7 | 0.00 | 0.00 | 0.00 | 26 | 1007.1 |
| 20260505210511 | 79 | 214 | 11.3 | 21.7 | 0.00 | 0.00 | 0.00 | 26 | 1007.1 |
| 20260505210412 | 80 | 252 | 11.3 | 21.7 | 0.00 | 0.00 | 0.00 | 26 | 1007.2 |
| 20260505210306 | 80 | 235 | 11.3 | 20.9 | 0.00 | 0.00 | 0.00 | 26 | 1007.2 |
| 20260505210206 | 80 | 247 | 11.3 | 20.9 | 0.00 | 0.00 | 0.00 | 25 | 1007.4 |
| 20260505210059 | 80 | 234 | 11.3 | 20.9 | 0.00 | 0.00 | 0.00 | 26 | 1007.4 |
| 20260505210000 | 81 | 297 | 11.3 | 20.9 | 0.00 | 0.00 | 0.00 | 26 | 1007.4 |
| 20260505205901 | 81 | 294 | 11.3 | 23.5 | 0.00 | 0.00 | 0.00 | 26 | 1007.4 |
| 20260505205758 | 81 | 241 | 11.3 | 23.5 | 0.00 | 0.00 | 0.00 | 26 | 1007.4 |
| 20260505205652 | 81 | 233 | 12.2 | 23.5 | 0.00 | 0.00 | 0.00 | 26 | 1007.1 |
| 20260505205555 | 81 | 287 | 12.2 | 23.5 | 0.00 | 0.00 | 0.00 | 26 | 1007.1 |
| 20260505205450 | 81 | 252 | 12.2 | 23.5 | 0.00 | 0.00 | 0.00 | 25 | 1007.1 |
| 20260505205350 | 81 | 244 | 12.2 | 23.5 | 0.00 | 0.00 | 0.00 | 26 | 1007.1 |
| 20260505205254 | 81 | 278 | 11.3 | 23.5 | 0.00 | 0.00 | 0.00 | 26 | 1007.2 |
| 20260505205140 | 81 | 282 | 11.3 | 23.5 | 0.00 | 0.00 | 0.00 | 26 | 1007.1 |
| 20260505205037 | 81 | 250 | 12.2 | 23.5 | 0.00 | 0.00 | 0.00 | 25 | 1007.1 |
| 20260505204939 | 81 | 248 | 12.2 | 23.5 | 0.00 | 0.00 | 0.00 | 25 | 1007.1 |
| 20260505204839 | 81 | 311 | 12.2 | 23.5 | 0.00 | 0.00 | 0.00 | 25 | 1007.1 |
| 20260505204736 | 81 | 261 | 12.2 | 23.5 | 0.00 | 0.00 | 0.00 | 25 | 1007.1 |
| 20260505204637 | 81 | 250 | 12.2 | 23.5 | 0.00 | 0.00 | 0.00 | 25 | 1007.1 |
| 20260505204539 | 80 | 240 | 11.3 | 23.5 | 0.00 | 0.00 | 0.00 | 25 | 1007.0 |
| 20260505204445 | 80 | 318 | 11.3 | 23.5 | 0.00 | 0.00 | 0.00 | 24 | 1007.0 |
| 20260505204341 | 80 | 257 | 11.3 | 23.5 | 0.00 | 0.00 | 0.00 | 24 | 1007.0 |
| 20260505204244 | 81 | 263 | 11.3 | 23.5 | 0.00 | 0.00 | 0.00 | 24 | 1007.0 |
| 20260505204206 | 81 | 243 | 11.3 | 23.5 | 0.00 | 0.00 | 0.00 | 24 | 1007.1 |
| 20260505204137 | 81 | 224 | 10.4 | 21.7 | 0.00 | 0.00 | 0.00 | 25 | 1007.1 |
| 20260505203943 | 81 | 251 | 9.6 | 21.7 | 0.00 | 0.00 | 0.00 | 25 | 1007.1 |
| 20260505203830 | 81 | 315 | 9.6 | 20.9 | 0.00 | 0.00 | 0.00 | 24 | 1007.0 |
| 20260505203723 | 81 | 289 | 9.6 | 20.9 | 0.00 | 0.00 | 0.00 | 24 | 1007.0 |
| 20260505203628 | 81 | 277 | 9.6 | 20.9 | 0.00 | 0.00 | 0.00 | 24 | 1007.0 |
| 20260505203524 | 80 | 225 | 9.6 | 20.9 | 0.00 | 0.00 | 0.00 | 24 | 1007.0 |
| 20260505203435 | 80 | 278 | 9.6 | 20.9 | 0.00 | 0.00 | 0.00 | 24 | 1007.0 |
| 20260505203329 | 81 | 271 | 9.6 | 20.9 | 0.00 | 0.00 | 0.00 | 24 | 1007.1 |
| 20260505203230 | 81 | 257 | 9.6 | 22.6 | 0.00 | 0.00 | 0.00 | 24 | 1007.1 |
| 20260505203129 | 81 | 228 | 9.6 | 22.6 | 0.00 | 0.00 | 0.00 | 24 | 1007.1 |
| 20260505203023 | 81 | 294 | 8.7 | 22.6 | 0.00 | 0.00 | 0.00 | 24 | 1007.2 |
| 20260505202925 | 81 | 263 | 9.6 | 22.6 | 0.00 | 0.00 | 0.00 | 24 | 1007.2 |
| 20260505202821 | 81 | 243 | 9.6 | 22.6 | 0.00 | 0.00 | 0.00 | 24 | 1007.2 |
| 20260505202719 | 81 | 260 | 8.7 | 22.6 | 0.00 | 0.00 | 0.00 | 24 | 1007.0 |
| 20260505202610 | 81 | 271 | 9.6 | 22.6 | 0.00 | 0.00 | 0.00 | 24 | 1007.0 |
| 20260505202509 | 81 | 265 | 9.6 | 22.6 | 0.00 | 0.00 | 0.00 | 24 | 1006.9 |
| 20260505202413 | 81 | 265 | 9.6 | 22.6 | 0.00 | 0.00 | 0.00 | 24 | 1006.9 |
| 20260505202301 | 81 | 213 | 8.7 | 22.6 | 0.00 | 0.00 | 0.00 | 23 | 1006.9 |
| 20260505202204 | 81 | 283 | 8.7 | 20.9 | 0.00 | 0.00 | 0.00 | 23 | 1007.0 |
| 20260505202050 | 81 | 278 | 8.7 | 20.9 | 0.00 | 0.00 | 0.00 | 24 | 1007.0 |
| 20260505201942 | 81 | 234 | 8.7 | 18.2 | 0.00 | 0.00 | 0.00 | 23 | 1007.0 |
| 20260505201845 | 81 | 234 | 8.7 | 18.2 | 0.00 | 0.00 | 0.00 | 23 | 1007.0 |
| 20260505201743 | 81 | 227 | 8.7 | 18.2 | 0.00 | 0.00 | 0.00 | 23 | 1007.0 |
| 20260505201639 | 82 | 271 | 8.7 | 18.2 | 0.00 | 0.00 | 0.00 | 23 | 1007.1 |
| 20260505201538 | 82 | 277 | 9.6 | 20.9 | 0.00 | 0.00 | 0.00 | 23 | 1007.1 |
| 20260505201437 | 82 | 285 | 9.6 | 22.6 | 0.00 | 0.00 | 0.00 | 23 | 1007.1 |
| 20260505201334 | 82 | 236 | 8.7 | 22.6 | 0.00 | 0.00 | 0.00 | 24 | 1007.1 |
| 20260505201236 | 82 | 242 | 8.7 | 22.6 | 0.00 | 0.00 | 0.00 | 24 | 1007.7 |
| 20260505201133 | 82 | 248 | 8.7 | 22.6 | 0.00 | 0.00 | 0.00 | 23 | 1007.7 |
| 20260505201021 | 82 | 239 | 8.7 | 22.6 | 0.00 | 0.00 | 0.00 | 22 | 1007.7 |
| 20260505200955 | 82 | 252 | 8.7 | 22.6 | 0.00 | 0.00 | 0.00 | 22 | 1007.7 |
| 20260505200814 | 82 | 244 | 8.7 | 22.6 | 0.00 | 0.00 | 0.00 | 23 | 1007.7 |
| 20260505200716 | 82 | 289 | 8.7 | 22.6 | 0.00 | 0.00 | 0.00 | 23 | 1007.7 |
| 20260505200614 | 82 | 228 | 7.8 | 22.6 | 0.00 | 0.00 | 0.00 | 23 | 1007.7 |
| 20260505200512 | 82 | 247 | 7.8 | 22.6 | 0.00 | 0.00 | 0.00 | 23 | 1007.7 |
| 20260505200411 | 82 | 252 | 7.8 | 22.6 | 0.00 | 0.00 | 0.00 | 23 | 1007.7 |
| 20260505200312 | 82 | 296 | 7.8 | 22.6 | 0.00 | 0.00 | 0.00 | 23 | 1007.7 |
| 20260505200213 | 81 | 252 | 7.8 | 22.6 | 0.00 | 0.00 | 0.00 | 22 | 1007.6 |
| 20260505200106 | 82 | 220 | 7.8 | 22.6 | 0.00 | 0.00 | 0.00 | 22 | 1007.7 |
| 20260505200006 | 82 | 269 | 7.8 | 22.6 | 0.00 | 0.00 | 0.00 | 23 | 1007.7 |
| 20260505195904 | 82 | 244 | 7.8 | 22.6 | 0.00 | 0.00 | 0.00 | 24 | 1007.7 |
| 20260505195803 | 81 | 267 | 7.0 | 22.6 | 0.00 | 0.00 | 0.00 | 23 | 1007.6 |
| 20260505195701 | 81 | 273 | 7.0 | 22.6 | 0.00 | 0.00 | 0.00 | 24 | 1007.9 |
| 20260505195601 | 81 | 219 | 7.0 | 22.6 | 0.00 | 0.00 | 0.00 | 23 | 1007.8 |
| 20260505195456 | 81 | 205 | 7.0 | 17.4 | 0.00 | 0.00 | 0.00 | 23 | 1007.8 |
| 20260505195400 | 80 | 296 | 7.0 | 17.4 | 0.00 | 0.00 | 0.00 | 23 | 1007.7 |
| 20260505195251 | 80 | 229 | 6.1 | 13.9 | 0.00 | 0.00 | 0.00 | 23 | 1007.7 |
| 20260505195158 | 80 | 166 | 6.1 | 13.0 | 0.00 | 0.00 | 0.00 | 23 | 1007.7 |
| 20260505195040 | 80 | 267 | 7.0 | 15.6 | 0.00 | 0.00 | 0.00 | 23 | 1007.7 |
| 20260505194946 | 80 | 261 | 7.0 | 18.2 | 0.00 | 0.00 | 0.00 | 24 | 1007.7 |
| 20260505194743 | 80 | 248 | 7.0 | 18.2 | 0.00 | 0.00 | 0.00 | 23 | 1007.7 |
| 20260505194640 | 80 | 289 | 7.0 | 18.2 | 0.00 | 0.00 | 0.00 | 23 | 1007.7 |
| 20260505194537 | 80 | 229 | 7.8 | 18.2 | 0.00 | 0.00 | 0.00 | 23 | 1007.7 |
| 20260505194442 | 80 | 188 | 7.8 | 18.2 | 0.00 | 0.00 | 0.00 | 23 | 1007.7 |
| 20260505194337 | 80 | 273 | 8.7 | 18.2 | 0.00 | 0.00 | 0.00 | 23 | 1007.7 |
| 20260505194234 | 80 | 213 | 8.7 | 18.2 | 0.00 | 0.00 | 0.00 | 23 | 1007.6 |
| 20260505194129 | 80 | 201 | 8.7 | 18.2 | 0.00 | 0.00 | 0.00 | 23 | 1007.6 |
| 20260505194027 | 80 | 254 | 8.7 | 18.2 | 0.00 | 0.00 | 0.00 | 23 | 1007.6 |
| 20260505193925 | 80 | 244 | 8.7 | 18.2 | 0.00 | 0.00 | 0.00 | 23 | 1007.5 |
| 20260505193823 | 80 | 219 | 8.7 | 18.2 | 0.00 | 0.00 | 0.00 | 22 | 1007.5 |
| 20260505193723 | 80 | 305 | 8.7 | 18.2 | 0.00 | 0.00 | 0.00 | 23 | 1007.5 |
| 20260505193657 | 80 | 244 | 8.7 | 20.0 | 0.00 | 0.00 | 0.00 | 23 | 1007.5 |
| 20260505193621 | 80 | 244 | 8.7 | 20.0 | 0.00 | 0.00 | 0.00 | 23 | 1007.5 |
| 20260505193525 | 80 | 259 | 8.7 | 20.0 | 0.00 | 0.00 | 0.00 | 23 | 1007.5 |
| 20260505193419 | 80 | 238 | 8.7 | 20.0 | 0.00 | 0.00 | 0.00 | 23 | 1007.4 |
| 20260505193310 | 79 | 261 | 7.8 | 20.0 | 0.00 | 0.00 | 0.00 | 23 | 1007.4 |
| 20260505193209 | 79 | 257 | 7.8 | 20.0 | 0.00 | 0.00 | 0.00 | 23 | 1007.4 |
| 20260505193119 | 79 | 216 | 7.8 | 20.0 | 0.00 | 0.00 | 0.00 | 23 | 1007.4 |
| 20260505193013 | 79 | 324 | 8.7 | 20.0 | 0.00 | 0.00 | 0.00 | 23 | 1007.4 |
| 20260505192910 | 79 | 233 | 8.7 | 20.0 | 0.00 | 0.00 | 0.00 | 23 | 1007.4 |
| 20260505192810 | 79 | 274 | 8.7 | 20.0 | 0.00 | 0.00 | 0.00 | 22 | 1007.2 |
| 20260505192710 | 79 | 246 | 8.7 | 20.0 | 0.00 | 0.00 | 0.00 | 23 | 1007.7 |
| 20260505192611 | 79 | 223 | 8.7 | 20.0 | 0.00 | 0.00 | 0.00 | 23 | 1007.7 |
| 20260505192517 | 79 | 303 | 8.7 | 20.0 | 0.00 | 0.00 | 0.00 | 23 | 1007.7 |
| 20260505192410 | 79 | 263 | 9.6 | 20.0 | 0.00 | 0.00 | 0.00 | 23 | 1007.6 |
| 20260505192305 | 79 | 213 | 9.6 | 20.0 | 0.00 | 0.00 | 0.00 | 23 | 1007.6 |
| 20260505192201 | 78 | 211 | 9.6 | 20.0 | 0.00 | 0.00 | 0.00 | 22 | 1007.6 |
| 20260505192106 | 78 | 240 | 9.6 | 20.0 | 0.00 | 0.00 | 0.00 | 22 | 1007.6 |
| 20260505192007 | 78 | 202 | 9.6 | 20.0 | 0.00 | 0.00 | 0.00 | 22 | 1007.6 |
| 20260505191859 | 78 | 289 | 9.6 | 20.0 | 0.00 | 0.00 | 0.00 | 22 | 1007.6 |
| 20260505191755 | 78 | 225 | 9.6 | 20.0 | 0.00 | 0.00 | 0.00 | 22 | 1007.6 |
| 20260505191655 | 78 | 221 | 9.6 | 20.0 | 0.00 | 0.00 | 0.00 | 22 | 1007.5 |
| 20260505191557 | 78 | 241 | 8.7 | 19.1 | 0.00 | 0.00 | 0.00 | 22 | 1007.5 |
| 20260505191455 | 78 | 270 | 8.7 | 19.1 | 0.00 | 0.00 | 0.00 | 22 | 1007.5 |
| 20260505191345 | 78 | 221 | 8.7 | 19.1 | 0.00 | 0.00 | 0.00 | 22 | 1007.5 |
| 20260505191248 | 78 | 228 | 8.7 | 19.1 | 0.00 | 0.00 | 0.00 | 22 | 1007.4 |
| 20260505191142 | 78 | 232 | 8.7 | 19.1 | 0.00 | 0.00 | 0.00 | 22 | 1007.4 |
| 20260505191035 | 78 | 196 | 7.8 | 19.1 | 0.00 | 0.00 | 0.00 | 22 | 1007.4 |
| 20260505190942 | 78 | 286 | 7.8 | 19.1 | 0.00 | 0.00 | 0.00 | 22 | 1007.2 |
| 20260505190837 | 78 | 246 | 7.8 | 16.5 | 0.00 | 0.00 | 0.00 | 22 | 1007.2 |
| 20260505190739 | 78 | 271 | 7.8 | 16.5 | 0.00 | 0.00 | 0.00 | 22 | 1007.2 |
| 20260505190637 | 77 | 250 | 7.8 | 17.4 | 0.00 | 0.00 | 0.00 | 21 | 1007.2 |
| 20260505190540 | 77 | 227 | 7.8 | 17.4 | 0.00 | 0.00 | 0.00 | 21 | 1007.2 |
| 20260505190433 | 77 | 234 | 7.8 | 17.4 | 0.00 | 0.00 | 0.00 | 21 | 1007.2 |
| 20260505190339 | 77 | 233 | 7.8 | 17.4 | 0.00 | 0.00 | 0.00 | 21 | 1007.2 |
| 20260505190235 | 77 | 238 | 7.8 | 17.4 | 0.00 | 0.00 | 0.00 | 22 | 1007.2 |
| 20260505190129 | 77 | 286 | 7.8 | 17.4 | 0.00 | 0.00 | 0.00 | 22 | 1007.2 |
| 20260505190027 | 77 | 259 | 7.8 | 17.4 | 0.00 | 0.00 | 0.00 | 22 | 1007.1 |
| 20260505185929 | 77 | 219 | 7.8 | 17.4 | 0.00 | 0.00 | 0.00 | 22 | 1007.1 |
| 20260505185829 | 77 | 211 | 7.8 | 17.4 | 0.00 | 0.00 | 0.00 | 22 | 1007.1 |
| 20260505185726 | 77 | 198 | 7.0 | 17.4 | 0.00 | 0.00 | 0.00 | 22 | 1007.6 |
| 20260505185629 | 77 | 268 | 6.1 | 13.9 | 0.00 | 0.00 | 0.00 | 22 | 1007.6 |
| 20260505185526 | 77 | 240 | 6.1 | 13.0 | 0.00 | 0.00 | 0.00 | 22 | 1007.6 |
| 20260505185420 | 77 | 234 | 6.1 | 13.0 | 0.00 | 0.00 | 0.00 | 22 | 1007.6 |
| 20260505185318 | 77 | 223 | 6.1 | 15.6 | 0.00 | 0.00 | 0.00 | 22 | 1007.6 |
| 20260505185220 | 77 | 248 | 6.1 | 15.6 | 0.00 | 0.00 | 0.00 | 22 | 1007.6 |
| 20260505185118 | 76 | 286 | 6.1 | 15.6 | 0.00 | 0.00 | 0.00 | 22 | 1007.6 |
| 20260505185017 | 76 | 252 | 6.1 | 15.6 | 0.00 | 0.00 | 0.00 | 22 | 1007.6 |
| 20260505184909 | 76 | 254 | 6.1 | 15.6 | 0.00 | 0.00 | 0.00 | 22 | 1007.5 |
| 20260505184808 | 76 | 246 | 6.1 | 15.6 | 0.00 | 0.00 | 0.00 | 22 | 1007.5 |
| 20260505184710 | 76 | 254 | 7.0 | 15.6 | 0.00 | 0.00 | 0.00 | 22 | 1007.5 |
| 20260505184611 | 76 | 252 | 7.0 | 15.6 | 0.00 | 0.00 | 0.00 | 22 | 1007.5 |
| 20260505184506 | 76 | 229 | 7.0 | 15.6 | 0.00 | 0.00 | 0.00 | 21 | 1007.4 |
| 20260505184405 | 76 | 216 | 6.1 | 15.6 | 0.00 | 0.00 | 0.00 | 21 | 1007.4 |
| 20260505184306 | 76 | 324 | 6.1 | 15.6 | 0.00 | 0.00 | 0.00 | 21 | 1007.4 |
| 20260505184159 | 76 | 256 | 6.1 | 15.6 | 0.00 | 0.00 | 0.00 | 22 | 1007.6 |
| 20260505184055 | 76 | 247 | 5.2 | 15.6 | 0.00 | 0.00 | 0.00 | 22 | 1007.6 |
| 20260505183956 | 76 | 219 | 5.2 | 15.6 | 0.00 | 0.00 | 0.00 | 22 | 1007.6 |
| 20260505183849 | 76 | 271 | 5.2 | 15.6 | 0.00 | 0.00 | 0.00 | 21 | 1007.6 |
| 20260505183742 | 76 | 300 | 5.2 | 15.6 | 0.00 | 0.00 | 0.00 | 22 | 1007.6 |
| 20260505183641 | 76 | 247 | 5.2 | 11.3 | 0.00 | 0.00 | 0.00 | 22 | 1007.6 |
| 20260505183542 | 76 | 261 | 5.2 | 12.2 | 0.00 | 0.00 | 0.00 | 22 | 1007.6 |
| 20260505183440 | 76 | 262 | 6.1 | 12.2 | 0.00 | 0.00 | 0.00 | 22 | 1007.6 |
| 20260505183337 | 76 | 195 | 6.1 | 12.2 | 0.00 | 0.00 | 0.00 | 22 | 1007.6 |
| 20260505183235 | 76 | 237 | 6.1 | 12.2 | 0.00 | 0.00 | 0.00 | 22 | 1007.6 |
| 20260505183135 | 76 | 205 | 7.0 | 12.2 | 0.00 | 0.00 | 0.00 | 21 | 1007.6 |
| 20260505183034 | 76 | 229 | 7.0 | 12.2 | 0.00 | 0.00 | 0.00 | 21 | 1007.6 |
| 20260505182939 | 76 | 227 | 7.0 | 13.9 | 0.00 | 0.00 | 0.00 | 21 | 1007.6 |
| 20260505182831 | 76 | 226 | 7.0 | 13.9 | 0.00 | 0.00 | 0.00 | 21 | 1007.6 |
| 20260505182735 | 76 | 183 | 7.0 | 13.9 | 0.00 | 0.00 | 0.00 | 21 | 1007.6 |
| 20260505182630 | 76 | 274 | 7.8 | 15.6 | 0.00 | 0.00 | 0.00 | 21 | 1007.6 |
| 20260505182529 | 76 | 248 | 7.0 | 15.6 | 0.00 | 0.00 | 0.00 | 21 | 1007.6 |
| 20260505182426 | 76 | 246 | 7.0 | 15.6 | 0.00 | 0.00 | 0.00 | 21 | 1007.6 |
| 20260505182327 | 76 | 243 | 7.0 | 15.6 | 0.00 | 0.00 | 0.00 | 21 | 1007.6 |
| 20260505182226 | 76 | 233 | 7.0 | 15.6 | 0.00 | 0.00 | 0.00 | 21 | 1007.6 |
| 20260505182126 | 76 | 217 | 7.0 | 16.5 | 0.00 | 0.00 | 0.00 | 21 | 1007.6 |
| 20260505182018 | 76 | 220 | 7.0 | 16.5 | 0.00 | 0.00 | 0.00 | 21 | 1007.6 |
| 20260505181920 | 76 | 215 | 7.0 | 16.5 | 0.00 | 0.00 | 0.00 | 21 | 1007.6 |
| 20260505181820 | 76 | 252 | 7.8 | 16.5 | 0.00 | 0.00 | 0.00 | 20 | 1007.6 |
| 20260505181722 | 76 | 224 | 7.0 | 16.5 | 0.00 | 0.00 | 0.00 | 21 | 1007.6 |
| 20260505181614 | 76 | 171 | 7.0 | 16.5 | 0.00 | 0.00 | 0.00 | 21 | 1007.6 |
| 20260505181507 | 76 | 284 | 7.0 | 16.5 | 0.00 | 0.00 | 0.00 | 21 | 1007.6 |
| 20260505181403 | 76 | 267 | 7.8 | 16.5 | 0.00 | 0.00 | 0.00 | 21 | 1007.6 |
| 20260505181301 | 76 | 255 | 7.8 | 16.5 | 0.00 | 0.00 | 0.00 | 21 | 1007.6 |
| 20260505181204 | 76 | 227 | 7.0 | 16.5 | 0.00 | 0.00 | 0.00 | 22 | 1007.1 |
| 20260505181109 | 76 | 259 | 7.0 | 13.9 | 0.00 | 0.00 | 0.00 | 22 | 1007.1 |
| 20260505181005 | 76 | 277 | 7.8 | 13.9 | 0.00 | 0.00 | 0.00 | 22 | 1007.1 |
| 20260505180909 | 76 | 280 | 7.8 | 16.5 | 0.00 | 0.00 | 0.00 | 22 | 1007.2 |
| 20260505180802 | 76 | 232 | 7.8 | 17.4 | 0.00 | 0.00 | 0.00 | 23 | 1007.2 |
| 20260505180658 | 76 | 246 | 7.8 | 17.4 | 0.00 | 0.00 | 0.00 | 24 | 1007.2 |
| 20260505180604 | 76 | 228 | 7.8 | 17.4 | 0.00 | 0.00 | 0.00 | 24 | 1007.2 |
| 20260505180502 | 76 | 226 | 7.8 | 17.4 | 0.00 | 0.00 | 0.00 | 25 | 1007.2 |
| 20260505180356 | 76 | 259 | 7.8 | 17.4 | 0.00 | 0.00 | 0.00 | 25 | 1007.2 |
| 20260505180304 | 76 | 254 | 7.8 | 17.4 | 0.00 | 0.00 | 0.00 | 24 | 1007.2 |
| 20260505180202 | 76 | 242 | 7.8 | 17.4 | 0.00 | 0.00 | 0.00 | 24 | 1007.2 |
| 20260505180059 | 76 | 231 | 7.8 | 17.4 | 0.00 | 0.00 | 0.00 | 25 | 1007.2 |
| 20260505175955 | 76 | 231 | 7.8 | 17.4 | 0.00 | 0.00 | 0.00 | 25 | 1007.2 |
| 20260505175856 | 76 | 199 | 7.8 | 17.4 | 0.00 | 0.00 | 0.00 | 25 | 1007.2 |
| 20260505175748 | 76 | 258 | 7.8 | 15.6 | 0.00 | 0.00 | 0.00 | 25 | 1007.4 |
| 20260505175646 | 76 | 254 | 7.8 | 15.6 | 0.00 | 0.00 | 0.00 | 25 | 1007.4 |
| 20260505175549 | 76 | 302 | 7.8 | 15.6 | 0.00 | 0.00 | 0.00 | 24 | 1007.4 |
| 20260505175447 | 76 | 227 | 7.8 | 15.6 | 0.00 | 0.00 | 0.00 | 24 | 1007.4 |
| 20260505175347 | 76 | 173 | 7.8 | 15.6 | 0.00 | 0.00 | 0.00 | 25 | 1007.4 |
| 20260505175237 | 76 | 235 | 7.8 | 18.2 | 0.00 | 0.00 | 0.00 | 25 | 1007.4 |
| 20260505175137 | 76 | 277 | 7.8 | 18.2 | 0.00 | 0.00 | 0.00 | 25 | 1007.4 |
| 20260505175041 | 76 | 207 | 7.8 | 18.2 | 0.00 | 0.00 | 0.00 | 26 | 1007.4 |
| 20260505174936 | 76 | 232 | 7.0 | 18.2 | 0.00 | 0.00 | 0.00 | 26 | 1007.4 |
| 20260505174842 | 77 | 213 | 7.0 | 18.2 | 0.00 | 0.00 | 0.00 | 26 | 1007.4 |
| 20260505174739 | 77 | 279 | 7.0 | 18.2 | 0.00 | 0.00 | 0.00 | 26 | 1007.4 |
| 20260505174633 | 77 | 246 | 7.0 | 18.2 | 0.00 | 0.00 | 0.00 | 26 | 1007.4 |
| 20260505174533 | 77 | 260 | 6.1 | 18.2 | 0.00 | 0.00 | 0.00 | 26 | 1007.4 |
| 20260505174428 | 77 | 246 | 6.1 | 18.2 | 0.00 | 0.00 | 0.00 | 26 | 1007.4 |
| 20260505174329 | 77 | 259 | 6.1 | 18.2 | 0.00 | 0.00 | 0.00 | 26 | 1007.5 |
| 20260505174211 | 77 | 253 | 6.1 | 12.2 | 0.00 | 0.00 | 0.00 | 27 | 1007.4 |
| 20260505174111 | 77 | 221 | 6.1 | 12.2 | 0.00 | 0.00 | 0.00 | 27 | 1007.4 |
| 20260505174015 | 77 | 232 | 6.1 | 12.2 | 0.00 | 0.00 | 0.00 | 27 | 1007.4 |
| 20260505173911 | 77 | 251 | 6.1 | 12.2 | 0.00 | 0.00 | 0.00 | 27 | 1007.4 |
| 20260505173816 | 77 | 255 | 6.1 | 12.2 | 0.00 | 0.00 | 0.00 | 27 | 1007.4 |
| 20260505173712 | 77 | 252 | 6.1 | 12.2 | 0.00 | 0.00 | 0.00 | 27 | 1007.4 |
| 20260505173606 | 77 | 216 | 6.1 | 12.2 | 0.00 | 0.00 | 0.00 | 26 | 1007.4 |
| 20260505173508 | 77 | 227 | 6.1 | 12.2 | 0.00 | 0.00 | 0.00 | 27 | 1007.4 |
| 20260505173408 | 77 | 257 | 6.1 | 10.4 | 0.00 | 0.00 | 0.00 | 27 | 1007.4 |
| 20260505173300 | 77 | 262 | 6.1 | 10.4 | 0.00 | 0.00 | 0.00 | 27 | 1007.4 |
| 20260505173149 | 77 | 252 | 6.1 | 13.0 | 0.00 | 0.00 | 0.00 | 27 | 1007.4 |
| 20260505173052 | 77 | 251 | 6.1 | 13.0 | 0.00 | 0.00 | 0.00 | 27 | 1007.4 |
| 20260505172954 | 77 | 232 | 6.1 | 13.0 | 0.00 | 0.00 | 0.00 | 27 | 1007.4 |
| 20260505172847 | 77 | 235 | 5.2 | 13.0 | 0.00 | 0.00 | 0.00 | 27 | 1007.4 |
| 20260505172738 | 77 | 220 | 5.2 | 13.0 | 0.00 | 0.00 | 0.00 | 27 | 1007.4 |
| 20260505172636 | 77 | 221 | 5.2 | 13.0 | 0.00 | 0.00 | 0.00 | 28 | 1007.4 |
| 20260505172537 | 77 | 248 | 5.2 | 13.0 | 0.00 | 0.00 | 0.00 | 28 | 1007.4 |
| 20260505172436 | 77 | 277 | 5.2 | 13.0 | 0.00 | 0.00 | 0.00 | 28 | 1007.4 |
| 20260505172342 | 77 | 246 | 5.2 | 13.9 | 0.00 | 0.00 | 0.00 | 28 | 1007.5 |
| 20260505172238 | 77 | 267 | 6.1 | 13.9 | 0.00 | 0.00 | 0.00 | 28 | 1007.5 |
| 20260505172124 | 77 | 232 | 6.1 | 13.9 | 0.00 | 0.00 | 0.00 | 29 | 1007.5 |
| 20260505172032 | 77 | 209 | 6.1 | 13.9 | 0.00 | 0.00 | 0.00 | 29 | 1007.5 |
| 20260505171924 | 77 | 254 | 5.2 | 13.9 | 0.00 | 0.00 | 0.00 | 29 | 1007.5 |
| 20260505171825 | 77 | 211 | 5.2 | 13.9 | 0.00 | 0.00 | 0.00 | 29 | 1007.5 |
| 20260505171728 | 77 | 237 | 4.3 | 13.9 | 0.00 | 0.00 | 0.00 | 29 | 1007.4 |
| 20260505171620 | 77 | 225 | 4.3 | 13.9 | 0.00 | 0.00 | 0.00 | 29 | 1007.4 |
| 20260505171518 | 77 | 253 | 4.3 | 13.9 | 0.00 | 0.00 | 0.00 | 29 | 1007.4 |
| 20260505171418 | 77 | 229 | 2.6 | 13.9 | 0.00 | 0.00 | 0.00 | 29 | 1007.5 |
| 20260505171315 | 77 | 231 | 2.6 | 13.0 | 0.00 | 0.00 | 0.00 | 29 | 1007.5 |
| 20260505171214 | 77 | 218 | 1.7 | 12.2 | 0.00 | 0.00 | 0.00 | 30 | 1007.4 |
| 20260505171113 | 77 | 234 | 1.7 | 12.2 | 0.00 | 0.00 | 0.00 | 31 | 1007.4 |
| 20260505171017 | 77 | 265 | 0.9 | 7.8 | 0.00 | 0.00 | 0.00 | 31 | 1007.4 |
| 20260505170908 | 76 | 133 | 1.7 | 5.2 | 0.00 | 0.00 | 0.00 | 32 | 1007.4 |
| 20260505170811 | 76 | 134 | 1.7 | 7.8 | 0.00 | 0.00 | 0.00 | 33 | 1007.2 |
| 20260505170711 | 76 | 209 | 1.7 | 7.8 | 0.00 | 0.00 | 0.00 | 33 | 1007.2 |
| 20260505170609 | 76 | 207 | 1.7 | 7.8 | 0.00 | 0.00 | 0.00 | 33 | 1007.1 |
| 20260505170511 | 76 | 175 | 2.6 | 7.8 | 0.00 | 0.00 | 0.00 | 34 | 1007.1 |
| 20260505170407 | 76 | 88 | 2.6 | 7.8 | 0.00 | 0.00 | 0.00 | 34 | 1007.1 |
| 20260505170342 | 76 | 71 | 2.6 | 7.8 | 0.00 | 0.00 | 0.00 | 33 | 1007.1 |
| 20260505170204 | 76 | 125 | 2.6 | 7.8 | 0.00 | 0.00 | 0.00 | 33 | 1007.1 |
| 20260505170104 | 76 | 126 | 2.6 | 7.8 | 0.00 | 0.00 | 0.00 | 33 | 1007.1 |
| 20260505170007 | 75 | 94 | 2.6 | 7.8 | 0.00 | 0.00 | 0.00 | 33 | 1007.1 |
| 20260505165906 | 75 | 128 | 2.6 | 7.8 | 0.00 | 0.00 | 0.00 | 33 | 1007.1 |
| 20260505165802 | 75 | 110 | 2.6 | 7.8 | 0.00 | 0.00 | 0.00 | 34 | 1007.1 |
| 20260505165707 | 75 | 86 | 3.5 | 7.8 | 0.00 | 0.00 | 0.00 | 34 | 1007.4 |
| 20260505165553 | 75 | 97 | 3.5 | 7.8 | 0.00 | 0.00 | 0.00 | 34 | 1007.4 |
| 20260505165455 | 75 | 101 | 2.6 | 7.8 | 0.00 | 0.00 | 0.00 | 34 | 1007.4 |
| 20260505165345 | 75 | 119 | 2.6 | 7.8 | 0.00 | 0.00 | 0.00 | 34 | 1007.4 |
| 20260505165248 | 75 | 140 | 2.6 | 7.8 | 0.00 | 0.00 | 0.00 | 34 | 1007.2 |
| 20260505165149 | 75 | 86 | 2.6 | 7.0 | 0.00 | 0.00 | 0.00 | 36 | 1007.2 |
| 20260505165037 | 75 | 119 | 2.6 | 7.0 | 0.00 | 0.00 | 0.00 | 36 | 1007.2 |
| 20260505164941 | 75 | 123 | 2.6 | 7.0 | 0.00 | 0.00 | 0.00 | 36 | 1007.2 |
| 20260505164824 | 75 | 112 | 2.6 | 7.0 | 0.00 | 0.00 | 0.00 | 36 | 1007.2 |
| 20260505164728 | 74 | 106 | 2.6 | 7.0 | 0.00 | 0.00 | 0.00 | 35 | 1007.2 |
| 20260505164632 | 74 | 117 | 2.6 | 7.0 | 0.00 | 0.00 | 0.00 | 36 | 1007.2 |
| 20260505164512 | 74 | 115 | 2.6 | 7.0 | 0.00 | 0.00 | 0.00 | 36 | 1007.2 |
| 20260505164414 | 74 | 124 | 2.6 | 7.0 | 0.00 | 0.00 | 0.00 | 36 | 1007.1 |
| 20260505164312 | 74 | 248 | 2.6 | 7.0 | 0.00 | 0.00 | 0.00 | 36 | 1007.1 |
| 20260505164210 | 74 | 155 | 2.6 | 6.1 | 0.00 | 0.00 | 0.00 | 35 | 1007.2 |
| 20260505164117 | 74 | 185 | 2.6 | 6.1 | 0.00 | 0.00 | 0.00 | 36 | 1007.2 |
| 20260505164013 | 74 | 134 | 2.6 | 6.1 | 0.00 | 0.00 | 0.00 | 36 | 1007.1 |
| 20260505163913 | 74 | 116 | 2.6 | 6.1 | 0.00 | 0.00 | 0.00 | 36 | 1007.1 |
| 20260505163808 | 74 | 161 | 2.6 | 6.1 | 0.00 | 0.00 | 0.00 | 36 | 1007.1 |
| 20260505163710 | 74 | 164 | 2.6 | 6.1 | 0.00 | 0.00 | 0.00 | 36 | 1007.1 |
| 20260505163611 | 74 | 146 | 2.6 | 6.1 | 0.00 | 0.00 | 0.00 | 37 | 1007.1 |
| 20260505163510 | 74 | 128 | 2.6 | 6.1 | 0.00 | 0.00 | 0.00 | 38 | 1007.1 |
| 20260505163419 | 73 | 146 | 1.7 | 6.1 | 0.00 | 0.00 | 0.00 | 38 | 1007.0 |
| 20260505163311 | 73 | 121 | 1.7 | 6.1 | 0.00 | 0.00 | 0.00 | 38 | 1007.0 |
| 20260505163209 | 73 | 136 | 1.7 | 6.1 | 0.00 | 0.00 | 0.00 | 37 | 1007.0 |
| 20260505163107 | 73 | 80 | 1.7 | 6.1 | 0.00 | 0.00 | 0.00 | 37 | 1007.0 |
| 20260505163017 | 73 | 167 | 0.9 | 6.1 | 0.00 | 0.00 | 0.00 | 38 | 1007.0 |
| 20260505162910 | 73 | 82 | 0.9 | 6.1 | 0.00 | 0.00 | 0.00 | 38 | 1007.0 |
| 20260505162809 | 73 | 128 | 0.9 | 6.1 | 0.00 | 0.00 | 0.00 | 38 | 1007.0 |
| 20260505162713 | 73 | 61 | 0.9 | 5.2 | 0.00 | 0.00 | 0.00 | 39 | 1007.5 |
| 20260505162616 | 73 | 63 | 0.0 | 5.2 | 0.00 | 0.00 | 0.00 | 40 | 1007.4 |
| 20260505162511 | 73 | 102 | 0.9 | 4.3 | 0.00 | 0.00 | 0.00 | 41 | 1007.4 |
| 20260505162403 | 73 | 119 | 0.9 | 4.3 | 0.00 | 0.00 | 0.00 | 41 | 1007.4 |
| 20260505162307 | 73 | 67 | 0.9 | 4.3 | 0.00 | 0.00 | 0.00 | 43 | 1007.4 |
| 20260505162157 | 73 | 155 | 0.9 | 4.3 | 0.00 | 0.00 | 0.00 | 43 | 1007.4 |
| 20260505162058 | 73 | 57 | 0.9 | 4.3 | 0.00 | 0.00 | 0.00 | 43 | 1007.4 |
| 20260505161958 | 73 | 91 | 1.7 | 5.2 | 0.00 | 0.00 | 0.00 | 44 | 1007.4 |
| 20260505161857 | 73 | 134 | 1.7 | 5.2 | 0.00 | 0.00 | 0.00 | 44 | 1007.4 |
| 20260505161756 | 72 | 136 | 1.7 | 6.1 | 0.00 | 0.00 | 0.00 | 44 | 1007.2 |
| 20260505161647 | 72 | 96 | 1.7 | 6.1 | 0.00 | 0.00 | 0.00 | 44 | 1007.2 |
| 20260505161545 | 72 | 186 | 1.7 | 6.1 | 0.00 | 0.00 | 0.00 | 43 | 1007.1 |
| 20260505161443 | 72 | 152 | 1.7 | 6.1 | 0.00 | 0.00 | 0.00 | 43 | 1007.1 |
| 20260505161336 | 72 | 39 | 1.7 | 6.1 | 0.00 | 0.00 | 0.00 | 42 | 1007.1 |
| 20260505161241 | 72 | 154 | 1.7 | 6.1 | 0.00 | 0.00 | 0.00 | 42 | 1007.1 |
| 20260505161136 | 72 | 114 | 1.7 | 6.1 | 0.00 | 0.00 | 0.00 | 42 | 1006.7 |
| 20260505161035 | 72 | 130 | 1.7 | 6.1 | 0.00 | 0.00 | 0.00 | 42 | 1006.7 |
| 20260505160940 | 72 | 120 | 1.7 | 6.1 | 0.00 | 0.00 | 0.00 | 41 | 1006.6 |
| 20260505160839 | 72 | 60 | 1.7 | 6.1 | 0.00 | 0.00 | 0.00 | 41 | 1006.6 |
| 20260505160739 | 72 | 118 | 0.9 | 4.3 | 0.00 | 0.00 | 0.00 | 42 | 1006.6 |
| 20260505160638 | 72 | 205 | 0.9 | 4.3 | 0.00 | 0.00 | 0.00 | 42 | 1006.6 |
| 20260505160536 | 72 | 86 | 0.9 | 4.3 | 0.00 | 0.00 | 0.00 | 41 | 1006.6 |
| 20260505160340 | 72 | 143 | 0.9 | 4.3 | 0.00 | 0.00 | 0.00 | 40 | 1006.6 |
| 20260505160234 | 72 | 147 | 0.9 | 4.3 | 0.00 | 0.00 | 0.00 | 40 | 1006.6 |
| 20260505160130 | 72 | 140 | 0.9 | 4.3 | 0.00 | 0.00 | 0.00 | 39 | 1006.6 |
| 20260505153341 | 71 | 98 | 0.0 | 2.6 | 0.00 | 0.00 | 0.00 | 42 | 1006.2 |
| 20260505153236 | 71 | 88 | 0.0 | 2.6 | 0.00 | 0.00 | 0.00 | 43 | 1006.4 |
| 20260505153134 | 71 | 87 | 0.0 | 0.9 | 0.00 | 0.00 | 0.00 | 42 | 1006.4 |
| 20260505153034 | 72 | 90 | 0.0 | 0.9 | 0.00 | 0.00 | 0.00 | 39 | 1006.4 |
| 20260505152930 | 72 | 64 | 0.0 | 0.9 | 0.00 | 0.00 | 0.00 | 38 | 1006.4 |
| 20260505152812 | 72 | 112 | 0.0 | 0.0 | 0.00 | 0.00 | 0.00 | 38 | 1006.4 |
| 20260505152713 | 72 | 106 | 0.0 | 0.0 | 0.00 | 0.00 | 0.00 | 38 | 1006.5 |
| 20260505152614 | 72 | 153 | 0.0 | 0.0 | 0.00 | 0.00 | 0.00 | 38 | 1006.5 |
| 20260505152516 | 72 | 154 | 0.0 | 0.0 | 0.00 | 0.00 | 0.00 | 37 | 1006.5 |
| 20260505152407 | 71 | 163 | 0.0 | 0.0 | 0.00 | 0.00 | 0.00 | 38 | 1006.5 |
| 20260505152310 | 71 | 163 | 0.0 | 0.0 | 0.00 | 0.00 | 0.00 | 37 | 1006.4 |
| 20260505152247 | 71 | 164 | 0.0 | 0.0 | 0.00 | 0.00 | 0.00 | 38 | 1006.4 |
| 20260505152057 | 71 | 161 | 0.0 | 0.0 | 0.00 | 0.00 | 0.00 | 38 | 1006.4 |
| 20260505151938 | 71 | 96 | 0.0 | 0.0 | 0.00 | 0.00 | 0.00 | 38 | 1006.2 |
| 20260505151841 | 71 | 96 | 0.0 | 0.0 | 0.00 | 0.00 | 0.00 | 37 | 1006.2 |
| 20260505151736 | 71 | 110 | 0.0 | 0.0 | 0.00 | 0.00 | 0.00 | 40 | 1006.4 |
| 20260505151633 | 71 | 107 | 0.0 | 0.0 | 0.00 | 0.00 | 0.00 | 39 | 1006.4 |
| 20260505151517 | 71 | 108 | 0.0 | 0.0 | 0.00 | 0.00 | 0.00 | 38 | 1006.2 |
| 20260505151414 | 71 | 108 | 0.0 | 0.0 | 0.00 | 0.00 | 0.00 | 37 | 1006.2 |
| 20260505151315 | 71 | 107 | 0.0 | 0.0 | 0.00 | 0.00 | 0.00 | 41 | 1006.4 |
| 20260505151211 | 71 | 148 | 0.0 | 0.0 | 0.00 | 0.00 | 0.00 | 41 | 1006.7 |
| 20260505151058 | 71 | 148 | 0.0 | 0.0 | 0.00 | 0.00 | 0.00 | 41 | 1006.6 |
| 20260505150942 | 71 | 149 | 0.0 | 0.0 | 0.00 | 0.00 | 0.00 | 41 | 1006.6 |
| 20260505150841 | 70 | 149 | 0.0 | 0.0 | 0.00 | 0.00 | 0.00 | 42 | 1006.6 |
| 20260505150736 | 70 | 149 | 0.0 | 0.0 | 0.00 | 0.00 | 0.00 | 44 | 1006.6 |
| 20260505150643 | 70 | 149 | 0.0 | 0.0 | 0.00 | 0.00 | 0.00 | 42 | 1006.6 |
| 20260505150543 | 70 | 148 | 0.0 | 0.0 | 0.00 | 0.00 | 0.00 | 42 | 1006.6 |
| 20260505150441 | 70 | 148 | 0.0 | 0.0 | 0.00 | 0.00 | 0.00 | 42 | 1006.6 |
| 20260505150340 | 70 | 149 | 0.0 | 0.0 | 0.00 | 0.00 | 0.00 | 43 | 1006.6 |
| 20260505150235 | 70 | 149 | 0.0 | 0.0 | 0.00 | 0.00 | 0.00 | 42 | 1006.5 |
| 20260505150112 | 70 | 149 | 0.0 | 0.0 | 0.00 | 0.00 | 0.00 | 43 | 1006.6 |
| 20260505140613 | 66 | 242 | 0.0 | 0.0 | 0.00 | 0.00 | 0.00 | 53 | 1005.8 |
| 20260505140503 | 66 | 194 | 0.0 | 0.0 | 0.00 | 0.00 | 0.00 | 52 | 1005.7 |
| 20260505140356 | 65 | 192 | 0.0 | 0.0 | 0.00 | 0.00 | 0.00 | 52 | 1005.7 |
| 20260505140246 | 65 | 192 | 0.0 | 0.0 | 0.00 | 0.00 | 0.00 | 52 | 1005.7 |
| 20260505140141 | 65 | 192 | 0.0 | 0.0 | 0.00 | 0.00 | 0.00 | 53 | 1005.7 |
| 20260505130242 | 61 | 244 | 0.0 | 0.9 | 0.00 | 0.00 | 0.00 | 61 | 1003.9 |
| 20260505130141 | 61 | 239 | 0.0 | 0.9 | 0.00 | 0.00 | 0.00 | 62 | 1003.9 |
| 20260505125002 | 61 | 290 | 0.0 | 0.9 | 0.00 | 0.00 | 0.00 | 62 | 1003.6 |
| 20260505124845 | 60 | 25 | 0.0 | 0.9 | 0.00 | 0.00 | 0.00 | 62 | 1003.5 |
| 20260505124744 | 60 | 40 | 0.0 | 0.9 | 0.00 | 0.00 | 0.00 | 61 | 1003.5 |
| 20260505124633 | 60 | 40 | 0.0 | 0.9 | 0.00 | 0.00 | 0.00 | 61 | 1003.5 |
| 20260505124536 | 60 | 40 | 0.0 | 0.9 | 0.00 | 0.00 | 0.00 | 61 | 1003.5 |
| 20260505124413 | 60 | 40 | 0.0 | 0.9 | 0.00 | 0.00 | 0.00 | 61 | 1003.5 |
| 20260505124310 | 60 | 40 | 0.0 | 0.9 | 0.00 | 0.00 | 0.00 | 61 | 1003.5 |
| 20260505124214 | 60 | 40 | 0.0 | 0.9 | 0.00 | 0.00 | 0.00 | 61 | 1003.5 |
| 20260505124102 | 60 | 40 | 0.0 | 0.9 | 0.00 | 0.00 | 0.00 | 61 | 1003.5 |
| 20260505123946 | 60 | 31 | 0.0 | 0.0 | 0.00 | 0.00 | 0.00 | 61 | 1003.5 |
| 20260505123845 | 60 | 11 | 0.0 | 3.5 | 0.00 | 0.00 | 0.00 | 61 | 1003.5 |
| 20260505123741 | 60 | 10 | 0.0 | 3.5 | 0.00 | 0.00 | 0.00 | 61 | 1003.5 |
| 20260505123641 | 60 | 10 | 0.0 | 3.5 | 0.00 | 0.00 | 0.00 | 60 | 1003.5 |
| 20260505123539 | 60 | 10 | 0.0 | 3.5 | 0.00 | 0.00 | 0.00 | 60 | 1003.5 |
| 20260505123438 | 60 | 91 | 0.0 | 3.5 | 0.00 | 0.00 | 0.00 | 61 | 1003.5 |
| 20260505123339 | 60 | 91 | 0.0 | 3.5 | 0.00 | 0.00 | 0.00 | 62 | 1003.5 |
| 20260505123233 | 60 | 79 | 0.0 | 3.5 | 0.00 | 0.00 | 0.00 | 62 | 1003.5 |
| 20260505123127 | 60 | 133 | 0.0 | 3.5 | 0.00 | 0.00 | 0.00 | 63 | 1003.5 |
| 20260505123031 | 60 | 207 | 0.0 | 3.5 | 0.00 | 0.00 | 0.00 | 63 | 1003.5 |
| 20260505122928 | 60 | 232 | 0.0 | 3.5 | 0.00 | 0.00 | 0.00 | 63 | 1003.5 |
| 20260505122813 | 60 | 239 | 0.0 | 1.7 | 0.00 | 0.00 | 0.00 | 63 | 1003.5 |
| 20260505122709 | 60 | 265 | 0.0 | 1.7 | 0.00 | 0.00 | 0.00 | 62 | 1003.4 |
| 20260505122610 | 60 | 274 | 0.0 | 0.0 | 0.00 | 0.00 | 0.00 | 62 | 1003.4 |
| 20260505122513 | 60 | 103 | 0.0 | 0.0 | 0.00 | 0.00 | 0.00 | 62 | 1003.4 |
| 20260505122402 | 60 | 103 | 0.0 | 0.0 | 0.00 | 0.00 | 0.00 | 62 | 1003.4 |
| 20260505122241 | 60 | 107 | 0.0 | 0.0 | 0.00 | 0.00 | 0.00 | 62 | 1003.4 |
| 20260505122139 | 60 | 92 | 0.0 | 0.0 | 0.00 | 0.00 | 0.00 | 62 | 1003.3 |
| 20260505122038 | 60 | 71 | 0.0 | 0.0 | 0.00 | 0.00 | 0.00 | 61 | 1003.4 |
| 20260505121941 | 60 | 71 | 0.0 | 0.0 | 0.00 | 0.00 | 0.00 | 62 | 1003.4 |
| 20260505121845 | 60 | 71 | 0.0 | 0.0 | 0.00 | 0.00 | 0.00 | 62 | 1003.4 |
| 20260505121736 | 60 | 71 | 0.0 | 0.0 | 0.00 | 0.00 | 0.00 | 62 | 1003.4 |
| 20260505121636 | 60 | 71 | 0.0 | 0.0 | 0.00 | 0.00 | 0.00 | 62 | 1003.4 |
| 20260505121531 | 60 | 56 | 0.0 | 0.0 | 0.00 | 0.00 | 0.00 | 62 | 1003.4 |
| 20260505121429 | 60 | 58 | 0.0 | 0.0 | 0.00 | 0.00 | 0.00 | 60 | 1003.4 |
| 20260505121331 | 60 | 241 | 0.0 | 0.0 | 0.00 | 0.00 | 0.00 | 60 | 1003.4 |
| 20260505121209 | 60 | 240 | 0.0 | 0.0 | 0.00 | 0.00 | 0.00 | 60 | 1002.7 |
| 20260505121110 | 60 | 240 | 0.0 | 0.0 | 0.00 | 0.00 | 0.00 | 60 | 1002.7 |
| 20260505121018 | 60 | 240 | 0.0 | 0.0 | 0.00 | 0.00 | 0.00 | 60 | 1002.7 |
| 20260505120914 | 60 | 240 | 0.0 | 0.0 | 0.00 | 0.00 | 0.00 | 60 | 1002.7 |
| 20260505120802 | 60 | 241 | 0.0 | 0.0 | 0.00 | 0.00 | 0.00 | 60 | 1002.7 |
| 20260505120638 | 60 | 240 | 0.0 | 0.0 | 0.00 | 0.00 | 0.00 | 60 | 1002.7 |
| 20260505120535 | 60 | 240 | 0.0 | 0.0 | 0.00 | 0.00 | 0.00 | 60 | 1002.7 |
| 20260505120441 | 60 | 241 | 0.0 | 0.0 | 0.00 | 0.00 | 0.00 | 59 | 1002.7 |
| 20260505120352 | 60 | 240 | 0.0 | 0.0 | 0.00 | 0.00 | 0.00 | 59 | 1002.7 |
| 20260505120307 | 60 | 240 | 0.0 | 0.0 | 0.00 | 0.00 | 0.00 | 59 | 1002.7 |
| 20260505120139 | 60 | 242 | 0.0 | 0.0 | 0.00 | 0.00 | 0.00 | 59 | 1002.7 |
| 20260505120034 | 61 | 242 | 0.0 | 0.0 | 0.00 | 0.00 | 0.00 | 59 | 1002.8 |
| 20260505115933 | 61 | 242 | 0.0 | 0.0 | 0.00 | 0.00 | 0.00 | 58 | 1002.8 |
| 20260505115838 | 61 | 119 | 0.0 | 0.0 | 0.00 | 0.00 | 0.00 | 58 | 1002.8 |
| 20260505115729 | 61 | 119 | 0.0 | 0.0 | 0.00 | 0.00 | 0.00 | 59 | 1002.7 |
| 20260505115616 | 61 | 119 | 0.0 | 0.0 | 0.00 | 0.00 | 0.00 | 58 | 1002.7 |
| 20260505115512 | 61 | 119 | 0.0 | 0.0 | 0.00 | 0.00 | 0.00 | 58 | 1002.7 |
| 20260505115347 | 61 | 119 | 0.0 | 0.0 | 0.00 | 0.00 | 0.00 | 58 | 1002.7 |
| 20260505115255 | 61 | 119 | 0.0 | 0.0 | 0.00 | 0.00 | 0.00 | 58 | 1002.7 |
| 20260505115143 | 61 | 119 | 0.0 | 0.0 | 0.00 | 0.00 | 0.00 | 58 | 1002.7 |
| 20260505115043 | 61 | 119 | 0.0 | 0.0 | 0.00 | 0.00 | 0.00 | 58 | 1002.7 |
| 20260505114939 | 61 | 119 | 0.0 | 0.0 | 0.00 | 0.00 | 0.00 | 57 | 1002.7 |
| 20260505114842 | 61 | 119 | 0.0 | 0.0 | 0.00 | 0.00 | 0.00 | 57 | 1002.7 |
| 20260505114741 | 61 | 119 | 0.0 | 0.0 | 0.00 | 0.00 | 0.00 | 57 | 1002.7 |
| 20260505114619 | 61 | 119 | 0.0 | 0.0 | 0.00 | 0.00 | 0.00 | 57 | 1002.7 |
| 20260505114513 | 61 | 119 | 0.0 | 0.0 | 0.00 | 0.00 | 0.00 | 57 | 1002.7 |
| 20260505114416 | 61 | 119 | 0.0 | 0.0 | 0.00 | 0.00 | 0.00 | 57 | 1002.7 |
| 20260505114310 | 61 | 119 | 0.0 | 0.0 | 0.00 | 0.00 | 0.00 | 56 | 1002.7 |
| 20260505114214 | 61 | 119 | 0.0 | 0.0 | 0.00 | 0.00 | 0.00 | 56 | 1002.6 |
| 20260505114111 | 61 | 119 | 0.0 | 0.0 | 0.00 | 0.00 | 0.00 | 56 | 1002.6 |
| 20260505113942 | 61 | 119 | 0.0 | 0.9 | 0.00 | 0.00 | 0.00 | 56 | 1002.6 |
| 20260505113841 | 61 | 119 | 0.0 | 0.9 | 0.00 | 0.00 | 0.00 | 56 | 1002.6 |
| 20260505113739 | 61 | 119 | 0.0 | 0.9 | 0.00 | 0.00 | 0.00 | 56 | 1002.6 |
| 20260505113634 | 61 | 119 | 0.0 | 0.9 | 0.00 | 0.00 | 0.00 | 55 | 1002.6 |
| 20260505113511 | 61 | 119 | 0.0 | 0.9 | 0.00 | 0.00 | 0.00 | 55 | 1002.6 |
| 20260505113359 | 61 | 132 | 0.0 | 0.9 | 0.00 | 0.00 | 0.00 | 55 | 1002.6 |
| 20260505113301 | 61 | 134 | 0.0 | 0.9 | 0.00 | 0.00 | 0.00 | 55 | 1002.6 |
| 20260505113146 | 61 | 101 | 0.0 | 0.9 | 0.00 | 0.00 | 0.00 | 55 | 1002.6 |
| 20260505113039 | 61 | 95 | 0.0 | 0.9 | 0.00 | 0.00 | 0.00 | 55 | 1002.6 |
| 20260505112937 | 61 | 103 | 0.0 | 0.9 | 0.00 | 0.00 | 0.00 | 55 | 1002.6 |
| 20260505112842 | 61 | 47 | 0.0 | 0.9 | 0.00 | 0.00 | 0.00 | 55 | 1002.6 |
| 20260505112721 | 62 | 71 | 0.0 | 1.7 | 0.00 | 0.00 | 0.00 | 55 | 1002.6 |
| 20260505112624 | 62 | 86 | 0.0 | 1.7 | 0.00 | 0.00 | 0.00 | 55 | 1002.6 |
| 20260505112512 | 62 | 90 | 0.0 | 1.7 | 0.00 | 0.00 | 0.00 | 54 | 1002.6 |
| 20260505112410 | 62 | 90 | 0.0 | 1.7 | 0.00 | 0.00 | 0.00 | 54 | 1002.6 |
| 20260505112304 | 62 | 54 | 0.0 | 1.7 | 0.00 | 0.00 | 0.00 | 54 | 1002.6 |
| 20260505112208 | 62 | 63 | 0.0 | 1.7 | 0.00 | 0.00 | 0.00 | 54 | 1002.6 |
| 20260505112042 | 62 | 65 | 0.0 | 1.7 | 0.00 | 0.00 | 0.00 | 54 | 1002.6 |
| 20260505111934 | 62 | 28 | 0.0 | 1.7 | 0.00 | 0.00 | 0.00 | 54 | 1002.6 |
| 20260505111837 | 62 | 43 | 0.0 | 1.7 | 0.00 | 0.00 | 0.00 | 54 | 1002.6 |
| 20260505111800 | 62 | 46 | 0.0 | 0.0 | 0.00 | 0.00 | 0.00 | 54 | 1002.6 |
| 20260505111650 | 62 | 34 | 0.0 | 0.0 | 0.00 | 0.00 | 0.00 | 53 | 1002.6 |
| 20260505111552 | 62 | 344 | 0.0 | 0.0 | 0.00 | 0.00 | 0.00 | 53 | 1002.6 |
| 20260505111447 | 62 | 342 | 0.0 | 0.0 | 0.00 | 0.00 | 0.00 | 53 | 1002.6 |
| 20260505111343 | 62 | 343 | 0.0 | 0.0 | 0.00 | 0.00 | 0.00 | 53 | 1002.6 |
| 20260505111251 | 62 | 343 | 0.0 | 0.0 | 0.00 | 0.00 | 0.00 | 54 | 1002.6 |
| 20260505111204 | 62 | 343 | 0.0 | 0.0 | 0.00 | 0.00 | 0.00 | 54 | 1002.6 |
| 20260505111041 | 62 | 304 | 0.0 | 0.0 | 0.00 | 0.00 | 0.00 | 52 | 1002.5 |
| 20260505110930 | 62 | 304 | 0.0 | 0.0 | 0.00 | 0.00 | 0.00 | 52 | 1002.5 |
| 20260505110822 | 62 | 304 | 0.0 | 0.0 | 0.00 | 0.00 | 0.00 | 52 | 1002.5 |
| 20260505110712 | 62 | 304 | 0.0 | 0.0 | 0.00 | 0.00 | 0.00 | 52 | 1002.6 |
| 20260505110653 | 62 | 304 | 0.0 | 0.0 | 0.00 | 0.00 | 0.00 | 51 | 1002.6 |
| 20260505110632 | 62 | 304 | 0.0 | 0.0 | 0.00 | 0.00 | 0.00 | 51 | 1002.5 |
| 20260505110608 | 62 | 304 | 0.0 | 0.0 | 0.00 | 0.00 | 0.00 | 51 | 1002.6 |
| 20260505110229 | 62 | 304 | 0.0 | 0.0 | 0.00 | 0.00 | 0.00 | 51 | 1002.6 |
| 20260505110135 | 62 | 304 | 0.0 | 0.0 | 0.00 | 0.00 | 0.00 | 51 | 1002.6 |
| 20260505102115 | 64 | 71 | 0.0 | 0.0 | 0.00 | 0.00 | 0.00 | 44 | 1002.8 |
| 20260505102017 | 64 | 229 | 0.0 | 0.9 | 0.00 | 0.00 | 0.00 | 44 | 1002.8 |
| 20260505101915 | 64 | 230 | 0.0 | 0.9 | 0.00 | 0.00 | 0.00 | 43 | 1002.8 |
| 20260505101815 | 64 | 230 | 0.0 | 0.9 | 0.00 | 0.00 | 0.00 | 43 | 1002.8 |
| 20260505101715 | 64 | 230 | 0.0 | 0.9 | 0.00 | 0.00 | 0.00 | 43 | 1002.8 |
| 20260505101610 | 64 | 230 | 0.0 | 0.9 | 0.00 | 0.00 | 0.00 | 42 | 1002.8 |
| 20260505101515 | 64 | 230 | 0.0 | 0.9 | 0.00 | 0.00 | 0.00 | 42 | 1002.9 |
| 20260505101416 | 64 | 230 | 0.0 | 0.9 | 0.00 | 0.00 | 0.00 | 43 | 1002.9 |
| 20260505101314 | 64 | 210 | 0.0 | 0.9 | 0.00 | 0.00 | 0.00 | 42 | 1002.9 |
| 20260505101159 | 64 | 211 | 0.0 | 0.9 | 0.00 | 0.00 | 0.00 | 42 | 1002.2 |
| 20260505101039 | 64 | 252 | 0.0 | 0.9 | 0.00 | 0.00 | 0.00 | 42 | 1002.2 |
| 20260505100938 | 64 | 244 | 0.0 | 0.9 | 0.00 | 0.00 | 0.00 | 42 | 1002.2 |
| 20260505100842 | 64 | 229 | 0.0 | 0.9 | 0.00 | 0.00 | 0.00 | 42 | 1002.2 |
| 20260505100736 | 64 | 204 | 0.0 | 0.9 | 0.00 | 0.00 | 0.00 | 42 | 1002.2 |
| 20260505100642 | 65 | 218 | 0.0 | 0.9 | 0.00 | 0.00 | 0.00 | 42 | 1002.3 |
| 20260505100539 | 65 | 191 | 0.0 | 0.9 | 0.00 | 0.00 | 0.00 | 42 | 1002.3 |
| 20260505100445 | 65 | 222 | 0.0 | 0.9 | 0.00 | 0.00 | 0.00 | 41 | 1002.3 |
| 20260505100341 | 64 | 223 | 0.0 | 0.9 | 0.00 | 0.00 | 0.00 | 41 | 1002.2 |
| 20260505100242 | 64 | 226 | 0.0 | 0.9 | 0.00 | 0.00 | 0.00 | 41 | 1002.2 |
| 20260505100137 | 64 | 264 | 0.0 | 0.9 | 0.00 | 0.00 | 0.00 | 43 | 1002.2 |
| 20260505100013 | 64 | 225 | 0.0 | 0.9 | 0.00 | 0.00 | 0.00 | 43 | 1002.2 |
| 20260505095920 | 64 | 200 | 0.0 | 0.9 | 0.00 | 0.00 | 0.00 | 43 | 1002.2 |
| 20260505095822 | 65 | 221 | 0.0 | 0.9 | 0.00 | 0.00 | 0.00 | 42 | 1002.3 |
| 20260505095721 | 65 | 221 | 0.0 | 0.9 | 0.00 | 0.00 | 0.00 | 42 | 1002.4 |
| 20260505095611 | 65 | 221 | 0.0 | 0.9 | 0.00 | 0.00 | 0.00 | 41 | 1002.4 |
| 20260505095510 | 65 | 223 | 0.0 | 0.9 | 0.00 | 0.00 | 0.00 | 41 | 1002.4 |
| 20260505095407 | 65 | 113 | 0.0 | 0.9 | 0.00 | 0.00 | 0.00 | 41 | 1002.5 |
| 20260505095305 | 65 | 105 | 0.0 | 0.9 | 0.00 | 0.00 | 0.00 | 42 | 1002.5 |
| 20260505095200 | 65 | 105 | 0.0 | 0.9 | 0.00 | 0.00 | 0.00 | 41 | 1002.5 |
| 20260505095053 | 65 | 100 | 0.0 | 0.9 | 0.00 | 0.00 | 0.00 | 41 | 1002.5 |
| 20260505094951 | 65 | 88 | 0.0 | 0.0 | 0.00 | 0.00 | 0.00 | 41 | 1002.5 |
| 20260505094848 | 65 | 98 | 0.0 | 0.0 | 0.00 | 0.00 | 0.00 | 40 | 1002.5 |
| 20260505094752 | 65 | 96 | 0.0 | 0.0 | 0.00 | 0.00 | 0.00 | 40 | 1002.5 |
| 20260505094641 | 65 | 97 | 0.0 | 0.0 | 0.00 | 0.00 | 0.00 | 40 | 1002.5 |
| 20260505094541 | 65 | 98 | 0.0 | 0.0 | 0.00 | 0.00 | 0.00 | 40 | 1002.5 |
| 20260505094442 | 65 | 240 | 0.0 | 0.0 | 0.00 | 0.00 | 0.00 | 40 | 1002.6 |
| 20260505094340 | 65 | 242 | 0.0 | 0.0 | 0.00 | 0.00 | 0.00 | 40 | 1002.6 |
| 20260505094238 | 65 | 242 | 0.0 | 0.9 | 0.00 | 0.00 | 0.00 | 40 | 1002.6 |
| 20260505094137 | 65 | 242 | 0.0 | 1.7 | 0.00 | 0.00 | 0.00 | 39 | 1002.3 |
| 20260505094042 | 66 | 242 | 0.0 | 1.7 | 0.00 | 0.00 | 0.00 | 39 | 1002.3 |
| 20260505093912 | 66 | 242 | 0.0 | 4.3 | 0.00 | 0.00 | 0.00 | 39 | 1002.3 |
| 20260505093814 | 66 | 242 | 0.0 | 4.3 | 0.00 | 0.00 | 0.00 | 39 | 1002.3 |
| 20260505093710 | 66 | 242 | 0.9 | 4.3 | 0.00 | 0.00 | 0.00 | 39 | 1002.3 |
| 20260505093620 | 66 | 242 | 0.9 | 4.3 | 0.00 | 0.00 | 0.00 | 38 | 1002.4 |
| 20260505093514 | 66 | 242 | 0.9 | 4.3 | 0.00 | 0.00 | 0.00 | 38 | 1002.4 |
| 20260505093409 | 66 | 221 | 0.9 | 4.3 | 0.00 | 0.00 | 0.00 | 38 | 1002.4 |
| 20260505093316 | 66 | 246 | 0.9 | 4.3 | 0.00 | 0.00 | 0.00 | 38 | 1002.4 |
| 20260505093214 | 66 | 265 | 0.9 | 4.3 | 0.00 | 0.00 | 0.00 | 38 | 1002.4 |
| 20260505093040 | 66 | 229 | 0.9 | 4.3 | 0.00 | 0.00 | 0.00 | 38 | 1002.5 |
| 20260505092936 | 67 | 216 | 0.9 | 6.1 | 0.00 | 0.00 | 0.00 | 37 | 1002.5 |
| 20260505092838 | 67 | 230 | 0.9 | 6.1 | 0.00 | 0.00 | 0.00 | 37 | 1002.5 |
| 20260505092737 | 67 | 224 | 0.9 | 6.1 | 0.00 | 0.00 | 0.00 | 37 | 1002.5 |
| 20260505092638 | 67 | 207 | 0.9 | 6.1 | 0.00 | 0.00 | 0.00 | 36 | 1002.6 |
| 20260505092534 | 67 | 242 | 1.7 | 6.1 | 0.00 | 0.00 | 0.00 | 36 | 1002.6 |
| 20260505092449 | 67 | 229 | 1.7 | 6.1 | 0.00 | 0.00 | 0.00 | 36 | 1002.6 |
| 20260505092334 | 67 | 208 | 1.7 | 7.0 | 0.00 | 0.00 | 0.00 | 36 | 1002.6 |
| 20260505092232 | 67 | 235 | 1.7 | 7.0 | 0.00 | 0.00 | 0.00 | 36 | 1002.6 |
| 20260505092135 | 67 | 236 | 2.6 | 7.0 | 0.00 | 0.00 | 0.00 | 35 | 1002.7 |
| 20260505092040 | 67 | 213 | 1.7 | 7.0 | 0.00 | 0.00 | 0.00 | 35 | 1002.7 |
| 20260505091924 | 67 | 242 | 1.7 | 7.0 | 0.00 | 0.00 | 0.00 | 35 | 1002.7 |
| 20260505091818 | 67 | 188 | 1.7 | 7.0 | 0.00 | 0.00 | 0.00 | 35 | 1002.7 |
| 20260505091720 | 67 | 250 | 1.7 | 7.0 | 0.00 | 0.00 | 0.00 | 34 | 1002.7 |
| 20260505091616 | 67 | 238 | 1.7 | 7.0 | 0.00 | 0.00 | 0.00 | 34 | 1002.7 |
| 20260505091513 | 67 | 233 | 1.7 | 7.0 | 0.00 | 0.00 | 0.00 | 34 | 1002.7 |
| 20260505091413 | 67 | 255 | 1.7 | 7.0 | 0.00 | 0.00 | 0.00 | 34 | 1002.7 |
| 20260505091313 | 67 | 223 | 1.7 | 8.7 | 0.00 | 0.00 | 0.00 | 34 | 1002.7 |
| 20260505091210 | 67 | 261 | 1.7 | 8.7 | 0.00 | 0.00 | 0.00 | 34 | 1002.7 |
| 20260505091110 | 67 | 268 | 1.7 | 8.7 | 0.00 | 0.00 | 0.00 | 34 | 1002.7 |
| 20260505091011 | 67 | 243 | 1.7 | 8.7 | 0.00 | 0.00 | 0.00 | 34 | 1002.7 |
| 20260505090950 | 67 | 223 | 1.7 | 8.7 | 0.00 | 0.00 | 0.00 | 34 | 1002.7 |
| 20260505090916 | 67 | 223 | 1.7 | 8.7 | 0.00 | 0.00 | 0.00 | 34 | 1002.7 |
| 20260505090806 | 67 | 271 | 1.7 | 8.7 | 0.00 | 0.00 | 0.00 | 34 | 1002.7 |
| 20260505090705 | 67 | 231 | 1.7 | 8.7 | 0.00 | 0.00 | 0.00 | 34 | 1002.7 |
| 20260505090602 | 67 | 267 | 1.7 | 8.7 | 0.00 | 0.00 | 0.00 | 34 | 1002.7 |
| 20260505090453 | 67 | 252 | 2.6 | 8.7 | 0.00 | 0.00 | 0.00 | 34 | 1002.7 |
| 20260505090359 | 67 | 238 | 2.6 | 10.4 | 0.00 | 0.00 | 0.00 | 34 | 1002.7 |
| 20260505090251 | 67 | 156 | 2.6 | 10.4 | 0.00 | 0.00 | 0.00 | 34 | 1002.7 |
| 20260505090142 | 67 | 223 | 2.6 | 10.4 | 0.00 | 0.00 | 0.00 | 34 | 1002.7 |
| 20260505090042 | 67 | 215 | 2.6 | 10.4 | 0.00 | 0.00 | 0.00 | 34 | 1002.7 |
| 20260505085947 | 67 | 229 | 2.6 | 10.4 | 0.00 | 0.00 | 0.00 | 34 | 1002.7 |
| 20260505085842 | 67 | 259 | 2.6 | 10.4 | 0.00 | 0.00 | 0.00 | 34 | 1002.7 |
| 20260505085741 | 68 | 225 | 3.5 | 10.4 | 0.00 | 0.00 | 0.00 | 34 | 1002.8 |
| 20260505085636 | 68 | 250 | 3.5 | 10.4 | 0.00 | 0.00 | 0.00 | 34 | 1002.9 |
| 20260505085538 | 68 | 245 | 4.3 | 10.4 | 0.00 | 0.00 | 0.00 | 34 | 1002.9 |
| 20260505085435 | 68 | 240 | 4.3 | 10.4 | 0.00 | 0.00 | 0.00 | 34 | 1002.9 |
| 20260505085331 | 68 | 244 | 4.3 | 10.4 | 0.00 | 0.00 | 0.00 | 34 | 1002.9 |
| 20260505085232 | 68 | 246 | 4.3 | 10.4 | 0.00 | 0.00 | 0.00 | 34 | 1002.9 |
| 20260505085130 | 68 | 244 | 4.3 | 10.4 | 0.00 | 0.00 | 0.00 | 34 | 1002.9 |
| 20260505085026 | 68 | 271 | 4.3 | 10.4 | 0.00 | 0.00 | 0.00 | 34 | 1002.9 |
| 20260505084926 | 68 | 252 | 4.3 | 8.7 | 0.00 | 0.00 | 0.00 | 34 | 1002.9 |
| 20260505084816 | 68 | 247 | 3.5 | 8.7 | 0.00 | 0.00 | 0.00 | 33 | 1002.9 |
| 20260505084723 | 68 | 269 | 3.5 | 8.7 | 0.00 | 0.00 | 0.00 | 33 | 1002.9 |
| 20260505084613 | 68 | 275 | 3.5 | 8.7 | 0.00 | 0.00 | 0.00 | 33 | 1002.9 |
| 20260505084511 | 68 | 238 | 3.5 | 8.7 | 0.00 | 0.00 | 0.00 | 33 | 1002.9 |
| 20260505084410 | 68 | 247 | 2.6 | 7.8 | 0.00 | 0.00 | 0.00 | 34 | 1002.9 |
| 20260505084310 | 68 | 203 | 2.6 | 7.8 | 0.00 | 0.00 | 0.00 | 33 | 1002.9 |
| 20260505084211 | 68 | 237 | 2.6 | 7.8 | 0.00 | 0.00 | 0.00 | 33 | 1002.9 |
| 20260505084112 | 68 | 233 | 2.6 | 7.8 | 0.00 | 0.00 | 0.00 | 33 | 1002.9 |
| 20260505084013 | 68 | 202 | 2.6 | 7.8 | 0.00 | 0.00 | 0.00 | 33 | 1002.9 |
| 20260505083913 | 68 | 257 | 2.6 | 7.8 | 0.00 | 0.00 | 0.00 | 33 | 1002.9 |
| 20260505083811 | 68 | 242 | 2.6 | 7.8 | 0.00 | 0.00 | 0.00 | 34 | 1002.9 |
| 20260505083710 | 68 | 238 | 2.6 | 7.8 | 0.00 | 0.00 | 0.00 | 33 | 1002.9 |
| 20260505083609 | 68 | 275 | 2.6 | 7.8 | 0.00 | 0.00 | 0.00 | 34 | 1002.9 |
| 20260505083503 | 67 | 254 | 2.6 | 7.8 | 0.00 | 0.00 | 0.00 | 34 | 1002.8 |
| 20260505083401 | 67 | 251 | 2.6 | 7.8 | 0.00 | 0.00 | 0.00 | 34 | 1002.8 |
| 20260505083258 | 67 | 224 | 2.6 | 7.8 | 0.00 | 0.00 | 0.00 | 34 | 1002.8 |
| 20260505083146 | 67 | 259 | 2.6 | 7.8 | 0.00 | 0.00 | 0.00 | 34 | 1002.8 |
| 20260505083045 | 67 | 290 | 2.6 | 7.8 | 0.00 | 0.00 | 0.00 | 35 | 1002.8 |
| 20260505082945 | 67 | 223 | 2.6 | 7.8 | 0.00 | 0.00 | 0.00 | 35 | 1002.8 |
| 20260505082844 | 67 | 217 | 2.6 | 7.8 | 0.00 | 0.00 | 0.00 | 34 | 1002.8 |
| 20260505082738 | 67 | 239 | 2.6 | 7.8 | 0.00 | 0.00 | 0.00 | 34 | 1002.8 |
| 20260505082644 | 67 | 226 | 1.7 | 7.0 | 0.00 | 0.00 | 0.00 | 34 | 1003.0 |
| 20260505082537 | 67 | 249 | 1.7 | 7.0 | 0.00 | 0.00 | 0.00 | 35 | 1003.0 |
| 20260505082439 | 67 | 232 | 1.7 | 7.0 | 0.00 | 0.00 | 0.00 | 35 | 1002.9 |
| 20260505082335 | 67 | 231 | 1.7 | 7.0 | 0.00 | 0.00 | 0.00 | 35 | 1002.9 |
| 20260505082239 | 67 | 248 | 1.7 | 7.0 | 0.00 | 0.00 | 0.00 | 35 | 1002.9 |
| 20260505082135 | 67 | 234 | 1.7 | 7.0 | 0.00 | 0.00 | 0.00 | 35 | 1002.9 |
| 20260505082040 | 67 | 243 | 1.7 | 6.1 | 0.00 | 0.00 | 0.00 | 37 | 1002.9 |
| 20260505081932 | 67 | 225 | 1.7 | 6.1 | 0.00 | 0.00 | 0.00 | 37 | 1002.8 |
| 20260505081828 | 66 | 205 | 1.7 | 6.1 | 0.00 | 0.00 | 0.00 | 37 | 1002.8 |
| 20260505081725 | 66 | 198 | 1.7 | 6.1 | 0.00 | 0.00 | 0.00 | 37 | 1002.8 |
| 20260505081620 | 66 | 237 | 1.7 | 6.1 | 0.00 | 0.00 | 0.00 | 38 | 1002.7 |
| 20260505081519 | 66 | 239 | 1.7 | 6.1 | 0.00 | 0.00 | 0.00 | 38 | 1002.7 |
| 20260505081424 | 66 | 232 | 0.9 | 6.1 | 0.00 | 0.00 | 0.00 | 38 | 1002.6 |
| 20260505081314 | 65 | 207 | 0.9 | 6.1 | 0.00 | 0.00 | 0.00 | 39 | 1002.6 |
| 20260505081222 | 65 | 231 | 0.9 | 6.1 | 0.00 | 0.00 | 0.00 | 39 | 1002.9 |
| 20260505081114 | 65 | 281 | 0.9 | 6.1 | 0.00 | 0.00 | 0.00 | 40 | 1002.9 |
| 20260505081018 | 65 | 236 | 0.9 | 6.1 | 0.00 | 0.00 | 0.00 | 40 | 1002.8 |
| 20260505080908 | 65 | 250 | 0.9 | 6.1 | 0.00 | 0.00 | 0.00 | 41 | 1002.8 |
| 20260505080812 | 64 | 226 | 0.9 | 5.2 | 0.00 | 0.00 | 0.00 | 43 | 1002.7 |
| 20260505080715 | 64 | 250 | 0.0 | 5.2 | 0.00 | 0.00 | 0.00 | 43 | 1002.7 |
| 20260505080609 | 64 | 177 | 0.0 | 5.2 | 0.00 | 0.00 | 0.00 | 45 | 1002.7 |
| 20260505080506 | 64 | 228 | 0.0 | 5.2 | 0.00 | 0.00 | 0.00 | 45 | 1002.6 |
| 20260505080404 | 63 | 229 | 0.0 | 5.2 | 0.00 | 0.00 | 0.00 | 47 | 1002.5 |
| 20260505080259 | 63 | 254 | 0.0 | 0.9 | 0.00 | 0.00 | 0.00 | 50 | 1002.5 |
| 20260505080147 | 63 | 254 | 0.0 | 0.9 | 0.00 | 0.00 | 0.00 | 50 | 1002.5 |
| 20260505080038 | 63 | 213 | 0.0 | 0.9 | 0.00 | 0.00 | 0.00 | 50 | 1002.5 |
| 20260505075943 | 63 | 206 | 0.0 | 0.9 | 0.00 | 0.00 | 0.00 | 50 | 1002.5 |
| 20260505075838 | 63 | 225 | 0.0 | 0.9 | 0.00 | 0.00 | 0.00 | 52 | 1002.5 |
| 20260505075741 | 63 | 223 | 0.0 | 1.7 | 0.00 | 0.00 | 0.00 | 52 | 1002.4 |
| 20260505075637 | 63 | 210 | 0.0 | 1.7 | 0.00 | 0.00 | 0.00 | 52 | 1002.4 |
| 20260505075541 | 62 | 209 | 0.0 | 1.7 | 0.00 | 0.00 | 0.00 | 52 | 1002.4 |
| 20260505075440 | 62 | 214 | 0.9 | 3.5 | 0.00 | 0.00 | 0.00 | 52 | 1002.4 |
| 20260505075335 | 62 | 226 | 0.9 | 4.3 | 0.00 | 0.00 | 0.00 | 52 | 1002.4 |
| 20260505075239 | 62 | 226 | 0.9 | 4.3 | 0.00 | 0.00 | 0.00 | 53 | 1002.4 |
| 20260505075135 | 62 | 221 | 0.9 | 4.3 | 0.00 | 0.00 | 0.00 | 53 | 1002.4 |
| 20260505075026 | 62 | 208 | 0.9 | 4.3 | 0.00 | 0.00 | 0.00 | 53 | 1002.4 |
| 20260505074909 | 62 | 213 | 0.9 | 5.2 | 0.00 | 0.00 | 0.00 | 53 | 1002.4 |
| 20260505074809 | 62 | 215 | 0.9 | 5.2 | 0.00 | 0.00 | 0.00 | 53 | 1002.4 |
| 20260505074712 | 63 | 220 | 0.9 | 5.2 | 0.00 | 0.00 | 0.00 | 54 | 1002.4 |
| 20260505074613 | 63 | 209 | 0.9 | 5.2 | 0.00 | 0.00 | 0.00 | 53 | 1002.5 |
| 20260505074513 | 63 | 209 | 0.9 | 5.2 | 0.00 | 0.00 | 0.00 | 53 | 1002.5 |
| 20260505074418 | 63 | 180 | 0.9 | 5.2 | 0.00 | 0.00 | 0.00 | 53 | 1002.5 |
| 20260505074308 | 63 | 148 | 0.9 | 5.2 | 0.00 | 0.00 | 0.00 | 52 | 1002.6 |
| 20260505074206 | 64 | 173 | 0.9 | 6.1 | 0.00 | 0.00 | 0.00 | 52 | 1002.5 |
| 20260505074058 | 64 | 184 | 0.9 | 6.1 | 0.00 | 0.00 | 0.00 | 52 | 1002.6 |
| 20260505074008 | 64 | 146 | 0.9 | 6.1 | 0.00 | 0.00 | 0.00 | 51 | 1002.6 |
| 20260505073901 | 64 | 151 | 0.9 | 6.1 | 0.00 | 0.00 | 0.00 | 48 | 1002.6 |
| 20260505073801 | 64 | 150 | 0.9 | 6.1 | 0.00 | 0.00 | 0.00 | 47 | 1002.6 |
| 20260505073650 | 64 | 207 | 0.9 | 6.1 | 0.00 | 0.00 | 0.00 | 48 | 1002.6 |
| 20260505073548 | 64 | 207 | 0.9 | 6.1 | 0.00 | 0.00 | 0.00 | 48 | 1002.6 |
| 20260505073445 | 64 | 196 | 0.9 | 6.1 | 0.00 | 0.00 | 0.00 | 48 | 1002.6 |
| 20260505073342 | 64 | 189 | 0.9 | 6.1 | 0.00 | 0.00 | 0.00 | 48 | 1002.6 |
| 20260505073234 | 64 | 194 | 0.9 | 5.2 | 0.00 | 0.00 | 0.00 | 48 | 1002.6 |
| 20260505073131 | 64 | 223 | 0.9 | 4.3 | 0.00 | 0.00 | 0.00 | 49 | 1002.6 |
| 20260505073035 | 64 | 179 | 0.9 | 4.3 | 0.00 | 0.00 | 0.00 | 49 | 1002.6 |
| 20260505072924 | 64 | 169 | 0.9 | 4.3 | 0.00 | 0.00 | 0.00 | 49 | 1002.6 |
| 20260505072819 | 64 | 188 | 0.9 | 4.3 | 0.00 | 0.00 | 0.00 | 49 | 1002.6 |
| 20260505072713 | 64 | 199 | 0.9 | 4.3 | 0.00 | 0.00 | 0.00 | 50 | 1002.6 |
| 20260505072612 | 64 | 200 | 0.9 | 4.3 | 0.00 | 0.00 | 0.00 | 50 | 1002.6 |
| 20260505072518 | 64 | 227 | 0.9 | 4.3 | 0.00 | 0.00 | 0.00 | 50 | 1002.6 |
| 20260505072406 | 64 | 223 | 0.9 | 4.3 | 0.00 | 0.00 | 0.00 | 49 | 1002.7 |
| 20260505072301 | 64 | 202 | 0.9 | 4.3 | 0.00 | 0.00 | 0.00 | 49 | 1002.7 |
| 20260505072159 | 64 | 211 | 0.9 | 4.3 | 0.00 | 0.00 | 0.00 | 49 | 1002.7 |
| 20260505072058 | 65 | 223 | 0.9 | 4.3 | 0.00 | 0.00 | 0.00 | 49 | 1002.8 |
| 20260505071944 | 65 | 209 | 0.9 | 4.3 | 0.00 | 0.00 | 0.00 | 48 | 1002.8 |
| 20260505071846 | 65 | 215 | 0.9 | 4.3 | 0.00 | 0.00 | 0.00 | 48 | 1002.8 |
| 20260505071739 | 65 | 213 | 0.9 | 5.2 | 0.00 | 0.00 | 0.00 | 47 | 1002.8 |
| 20260505071645 | 65 | 246 | 0.9 | 5.2 | 0.00 | 0.00 | 0.00 | 47 | 1002.9 |
| 20260505071536 | 65 | 237 | 1.7 | 7.8 | 0.00 | 0.00 | 0.00 | 47 | 1002.9 |
| 20260505071437 | 65 | 223 | 1.7 | 7.8 | 0.00 | 0.00 | 0.00 | 46 | 1002.9 |
| 20260505071339 | 66 | 213 | 1.7 | 7.8 | 0.00 | 0.00 | 0.00 | 46 | 1003.0 |
| 20260505071238 | 66 | 216 | 2.6 | 7.8 | 0.00 | 0.00 | 0.00 | 44 | 1003.0 |
| 20260505071137 | 66 | 240 | 2.6 | 7.8 | 0.00 | 0.00 | 0.00 | 43 | 1003.3 |
| 20260505071037 | 66 | 221 | 2.6 | 7.8 | 0.00 | 0.00 | 0.00 | 43 | 1003.3 |
| 20260505070932 | 66 | 234 | 2.6 | 7.8 | 0.00 | 0.00 | 0.00 | 43 | 1003.3 |
| 20260505070830 | 66 | 240 | 2.6 | 7.8 | 0.00 | 0.00 | 0.00 | 43 | 1003.3 |
| 20260505070727 | 66 | 189 | 1.7 | 7.8 | 0.00 | 0.00 | 0.00 | 42 | 1003.3 |
| 20260505070630 | 66 | 227 | 1.7 | 7.0 | 0.00 | 0.00 | 0.00 | 42 | 1003.3 |
| 20260505070523 | 66 | 191 | 0.9 | 7.0 | 0.00 | 0.00 | 0.00 | 42 | 1003.1 |
| 20260505070417 | 65 | 219 | 0.9 | 7.0 | 0.00 | 0.00 | 0.00 | 43 | 1003.1 |
| 20260505070323 | 65 | 219 | 0.9 | 5.2 | 0.00 | 0.00 | 0.00 | 43 | 1003.0 |
| 20260505070219 | 65 | 233 | 0.9 | 5.2 | 0.00 | 0.00 | 0.00 | 46 | 1003.0 |
| 20260505070116 | 65 | 215 | 0.9 | 5.2 | 0.00 | 0.00 | 0.00 | 46 | 1003.0 |
| 20260505070012 | 65 | 198 | 0.9 | 5.2 | 0.00 | 0.00 | 0.00 | 47 | 1003.0 |
| 20260505065910 | 65 | 175 | 0.0 | 5.2 | 0.00 | 0.00 | 0.00 | 46 | 1003.0 |
| 20260505065811 | 65 | 152 | 0.0 | 5.2 | 0.00 | 0.00 | 0.00 | 45 | 1003.0 |
| 20260505065718 | 65 | 192 | 0.0 | 0.0 | 0.00 | 0.00 | 0.00 | 45 | 1002.8 |
| 20260505065605 | 65 | 184 | 0.0 | 0.0 | 0.00 | 0.00 | 0.00 | 45 | 1002.8 |
| 20260505065501 | 65 | 202 | 0.0 | 0.0 | 0.00 | 0.00 | 0.00 | 45 | 1002.8 |
| 20260505065400 | 65 | 190 | 0.0 | 0.0 | 0.00 | 0.00 | 0.00 | 45 | 1002.8 |
| 20260505065235 | 65 | 175 | 0.0 | 0.0 | 0.00 | 0.00 | 0.00 | 46 | 1002.8 |
| 20260505065136 | 65 | 170 | 0.0 | 0.0 | 0.00 | 0.00 | 0.00 | 45 | 1002.9 |
| 20260505065040 | 65 | 118 | 0.0 | 0.0 | 0.00 | 0.00 | 0.00 | 46 | 1002.9 |
| 20260505064939 | 65 | 118 | 0.0 | 0.0 | 0.00 | 0.00 | 0.00 | 45 | 1002.9 |
| 20260505064837 | 66 | 117 | 0.0 | 0.0 | 0.00 | 0.00 | 0.00 | 45 | 1003.0 |
| 20260505064737 | 66 | 117 | 0.0 | 0.0 | 0.00 | 0.00 | 0.00 | 45 | 1003.0 |
| 20260505064643 | 66 | 117 | 0.0 | 0.0 | 0.00 | 0.00 | 0.00 | 45 | 1003.0 |
| 20260505064540 | 66 | 117 | 0.0 | 0.0 | 0.00 | 0.00 | 0.00 | 44 | 1003.0 |
| 20260505064438 | 66 | 117 | 0.0 | 0.0 | 0.00 | 0.00 | 0.00 | 44 | 1003.0 |
| 20260505064327 | 66 | 117 | 0.0 | 0.0 | 0.00 | 0.00 | 0.00 | 43 | 1003.1 |
| 20260505064228 | 66 | 136 | 0.0 | 0.0 | 0.00 | 0.00 | 0.00 | 43 | 1003.0 |
| 20260505064124 | 66 | 150 | 0.0 | 0.0 | 0.00 | 0.00 | 0.00 | 42 | 1003.0 |
| 20260505064015 | 67 | 150 | 0.0 | 0.0 | 0.00 | 0.00 | 0.00 | 42 | 1003.0 |
| 20260505063913 | 67 | 150 | 0.0 | 0.0 | 0.00 | 0.00 | 0.00 | 41 | 1003.1 |
| 20260505063817 | 67 | 150 | 0.0 | 0.0 | 0.00 | 0.00 | 0.00 | 41 | 1003.1 |
| 20260505063657 | 67 | 150 | 0.0 | 0.9 | 0.00 | 0.00 | 0.00 | 41 | 1003.1 |
| 20260505063548 | 67 | 150 | 0.0 | 0.9 | 0.00 | 0.00 | 0.00 | 41 | 1003.1 |
| 20260505063439 | 67 | 190 | 0.0 | 0.9 | 0.00 | 0.00 | 0.00 | 40 | 1003.1 |
| 20260505063350 | 67 | 190 | 0.0 | 0.9 | 0.00 | 0.00 | 0.00 | 40 | 1003.1 |
| 20260505063241 | 67 | 179 | 0.0 | 0.9 | 0.00 | 0.00 | 0.00 | 41 | 1003.1 |
| 20260505063138 | 67 | 164 | 0.0 | 0.9 | 0.00 | 0.00 | 0.00 | 41 | 1003.1 |
| 20260505063028 | 67 | 162 | 0.0 | 0.9 | 0.00 | 0.00 | 0.00 | 41 | 1003.3 |
| 20260505062930 | 67 | 166 | 0.0 | 0.9 | 0.00 | 0.00 | 0.00 | 41 | 1003.3 |
| 20260505062831 | 67 | 171 | 0.0 | 0.9 | 0.00 | 0.00 | 0.00 | 40 | 1003.3 |
| 20260505062725 | 67 | 175 | 0.0 | 0.9 | 0.00 | 0.00 | 0.00 | 40 | 1003.1 |
| 20260505062629 | 67 | 150 | 0.0 | 0.0 | 0.00 | 0.00 | 0.00 | 40 | 1003.1 |
| 20260505062515 | 67 | 206 | 0.0 | 0.0 | 0.00 | 0.00 | 0.00 | 40 | 1003.1 |
| 20260505062410 | 67 | 223 | 0.0 | 0.0 | 0.00 | 0.00 | 0.00 | 40 | 1003.1 |
| 20260505062313 | 67 | 230 | 0.0 | 0.0 | 0.00 | 0.00 | 0.00 | 39 | 1003.1 |
| 20260505062140 | 68 | 200 | 0.0 | 0.0 | 0.00 | 0.00 | 0.00 | 39 | 1003.3 |
| 20260505062038 | 68 | 215 | 0.0 | 0.0 | 0.00 | 0.00 | 0.00 | 39 | 1003.3 |
| 20260505061945 | 68 | 215 | 0.0 | 0.9 | 0.00 | 0.00 | 0.00 | 39 | 1003.3 |
| 20260505061840 | 68 | 226 | 0.0 | 0.9 | 0.00 | 0.00 | 0.00 | 39 | 1003.3 |
| 20260505061737 | 68 | 226 | 0.0 | 0.9 | 0.00 | 0.00 | 0.00 | 39 | 1003.3 |
| 20260505061638 | 68 | 226 | 0.0 | 0.9 | 0.00 | 0.00 | 0.00 | 39 | 1003.3 |
| 20260505061537 | 68 | 228 | 0.0 | 0.9 | 0.00 | 0.00 | 0.00 | 38 | 1003.3 |
| 20260505061411 | 68 | 228 | 0.0 | 0.9 | 0.00 | 0.00 | 0.00 | 38 | 1003.3 |
| 20260505061310 | 68 | 234 | 0.0 | 0.9 | 0.00 | 0.00 | 0.00 | 38 | 1003.3 |
| 20260505061218 | 68 | 213 | 0.0 | 0.9 | 0.00 | 0.00 | 0.00 | 38 | 1003.6 |
| 20260505061110 | 68 | 221 | 0.0 | 0.9 | 0.00 | 0.00 | 0.00 | 38 | 1003.6 |
| 20260505061008 | 68 | 223 | 0.0 | 1.7 | 0.00 | 0.00 | 0.00 | 38 | 1003.6 |
| 20260505060905 | 68 | 208 | 0.0 | 1.7 | 0.00 | 0.00 | 0.00 | 38 | 1003.6 |
| 20260505060742 | 68 | 209 | 0.0 | 1.7 | 0.00 | 0.00 | 0.00 | 38 | 1003.6 |
| 20260505060637 | 68 | 209 | 0.0 | 1.7 | 0.00 | 0.00 | 0.00 | 38 | 1003.6 |
| 20260505060534 | 68 | 223 | 0.0 | 1.7 | 0.00 | 0.00 | 0.00 | 38 | 1003.6 |
| 20260505060437 | 68 | 199 | 0.0 | 1.7 | 0.00 | 0.00 | 0.00 | 38 | 1003.6 |
| 20260505060341 | 68 | 144 | 0.0 | 1.7 | 0.00 | 0.00 | 0.00 | 38 | 1003.6 |
| 20260505060231 | 68 | 245 | 0.0 | 1.7 | 0.00 | 0.00 | 0.00 | 38 | 1003.7 |
| 20260505060120 | 68 | 234 | 0.0 | 3.5 | 0.00 | 0.00 | 0.00 | 38 | 1003.6 |
| 20260505060018 | 68 | 262 | 0.0 | 3.5 | 0.00 | 0.00 | 0.00 | 38 | 1003.6 |
| 20260505055916 | 68 | 243 | 0.0 | 3.5 | 0.00 | 0.00 | 0.00 | 38 | 1003.7 |
| 20260505055810 | 68 | 276 | 0.0 | 3.5 | 0.00 | 0.00 | 0.00 | 38 | 1003.6 |
| 20260505055712 | 68 | 246 | 0.0 | 3.5 | 0.00 | 0.00 | 0.00 | 38 | 1003.8 |
| 20260505055611 | 68 | 248 | 0.9 | 4.3 | 0.00 | 0.00 | 0.00 | 38 | 1003.8 |
| 20260505055510 | 68 | 243 | 0.9 | 4.3 | 0.00 | 0.00 | 0.00 | 38 | 1003.8 |
| 20260505055410 | 68 | 243 | 0.9 | 4.3 | 0.00 | 0.00 | 0.00 | 38 | 1003.8 |
| 20260505055310 | 68 | 248 | 0.9 | 5.2 | 0.00 | 0.00 | 0.00 | 38 | 1003.8 |
| 20260505055209 | 68 | 278 | 0.9 | 5.2 | 0.00 | 0.00 | 0.00 | 38 | 1003.8 |
| 20260505055110 | 68 | 249 | 0.9 | 5.2 | 0.00 | 0.00 | 0.00 | 38 | 1003.8 |
| 20260505055009 | 68 | 259 | 0.9 | 5.2 | 0.00 | 0.00 | 0.00 | 38 | 1003.8 |
| 20260505054902 | 68 | 257 | 0.9 | 5.2 | 0.00 | 0.00 | 0.00 | 39 | 1003.8 |
| 20260505054802 | 68 | 252 | 0.9 | 5.2 | 0.00 | 0.00 | 0.00 | 39 | 1003.8 |
| 20260505054701 | 69 | 254 | 0.9 | 5.2 | 0.00 | 0.00 | 0.00 | 38 | 1003.9 |
| 20260505054557 | 69 | 232 | 0.9 | 5.2 | 0.00 | 0.00 | 0.00 | 39 | 1003.9 |
| 20260505054447 | 69 | 246 | 0.9 | 5.2 | 0.00 | 0.00 | 0.00 | 39 | 1003.9 |
| 20260505054343 | 69 | 263 | 0.9 | 4.3 | 0.00 | 0.00 | 0.00 | 38 | 1003.9 |
| 20260505054246 | 69 | 234 | 0.9 | 4.3 | 0.00 | 0.00 | 0.00 | 38 | 1003.9 |
| 20260505054145 | 69 | 236 | 0.9 | 5.2 | 0.00 | 0.00 | 0.00 | 38 | 1003.9 |
| 20260505054050 | 69 | 247 | 0.9 | 5.2 | 0.00 | 0.00 | 0.00 | 38 | 1004.0 |
| 20260505053943 | 69 | 238 | 0.9 | 5.2 | 0.00 | 0.00 | 0.00 | 38 | 1004.0 |
| 20260505053840 | 69 | 236 | 0.9 | 5.2 | 0.00 | 0.00 | 0.00 | 37 | 1004.0 |
| 20260505053737 | 69 | 221 | 0.9 | 5.2 | 0.00 | 0.00 | 0.00 | 37 | 1004.0 |
| 20260505053639 | 69 | 241 | 0.9 | 6.1 | 0.00 | 0.00 | 0.00 | 37 | 1004.1 |
| 20260505053540 | 70 | 242 | 0.9 | 6.1 | 0.00 | 0.00 | 0.00 | 36 | 1004.1 |
| 20260505053440 | 70 | 274 | 0.9 | 6.1 | 0.00 | 0.00 | 0.00 | 36 | 1004.1 |
| 20260505053343 | 70 | 259 | 0.9 | 6.1 | 0.00 | 0.00 | 0.00 | 35 | 1004.3 |
| 20260505053237 | 70 | 236 | 0.9 | 6.1 | 0.00 | 0.00 | 0.00 | 35 | 1004.3 |
| 20260505053140 | 70 | 232 | 0.9 | 6.1 | 0.00 | 0.00 | 0.00 | 35 | 1004.3 |
| 20260505053040 | 70 | 232 | 0.9 | 6.1 | 0.00 | 0.00 | 0.00 | 34 | 1004.3 |
| 20260505052937 | 70 | 205 | 1.7 | 6.1 | 0.00 | 0.00 | 0.00 | 34 | 1004.3 |
| 20260505052835 | 71 | 231 | 1.7 | 6.1 | 0.00 | 0.00 | 0.00 | 34 | 1004.4 |
| 20260505052728 | 71 | 232 | 1.7 | 6.1 | 0.00 | 0.00 | 0.00 | 33 | 1004.5 |
| 20260505052625 | 71 | 204 | 1.7 | 6.1 | 0.00 | 0.00 | 0.00 | 33 | 1004.5 |
| 20260505052517 | 71 | 228 | 1.7 | 6.1 | 0.00 | 0.00 | 0.00 | 33 | 1004.6 |
| 20260505052415 | 71 | 234 | 1.7 | 6.1 | 0.00 | 0.00 | 0.00 | 33 | 1004.6 |
| 20260505052311 | 71 | 232 | 1.7 | 6.1 | 0.00 | 0.00 | 0.00 | 32 | 1004.6 |
| 20260505052215 | 71 | 249 | 1.7 | 6.1 | 0.00 | 0.00 | 0.00 | 32 | 1004.6 |
| 20260505052112 | 71 | 227 | 1.7 | 6.1 | 0.00 | 0.00 | 0.00 | 32 | 1004.6 |
| 20260505052012 | 71 | 263 | 1.7 | 6.1 | 0.00 | 0.00 | 0.00 | 31 | 1004.6 |
| 20260505051921 | 71 | 237 | 1.7 | 7.0 | 0.00 | 0.00 | 0.00 | 32 | 1004.6 |
| 20260505051810 | 71 | 236 | 2.6 | 7.0 | 0.00 | 0.00 | 0.00 | 32 | 1004.6 |
| 20260505051708 | 71 | 215 | 2.6 | 7.0 | 0.00 | 0.00 | 0.00 | 32 | 1004.5 |
| 20260505051613 | 71 | 236 | 2.6 | 7.0 | 0.00 | 0.00 | 0.00 | 32 | 1004.5 |
| 20260505051518 | 71 | 279 | 2.6 | 7.0 | 0.00 | 0.00 | 0.00 | 32 | 1004.5 |
| 20260505051413 | 71 | 247 | 2.6 | 7.0 | 0.00 | 0.00 | 0.00 | 32 | 1004.5 |
| 20260505051303 | 71 | 239 | 2.6 | 7.0 | 0.00 | 0.00 | 0.00 | 32 | 1004.5 |
| 20260505051205 | 71 | 249 | 2.6 | 7.0 | 0.00 | 0.00 | 0.00 | 32 | 1005.0 |
| 20260505051054 | 71 | 232 | 2.6 | 7.0 | 0.00 | 0.00 | 0.00 | 32 | 1005.0 |
| 20260505050956 | 71 | 233 | 2.6 | 7.0 | 0.00 | 0.00 | 0.00 | 33 | 1005.0 |
| 20260505050853 | 71 | 234 | 2.6 | 7.0 | 0.00 | 0.00 | 0.00 | 33 | 1005.0 |
| 20260505050753 | 71 | 257 | 2.6 | 7.0 | 0.00 | 0.00 | 0.00 | 33 | 1005.0 |
| 20260505050647 | 71 | 231 | 2.6 | 7.0 | 0.00 | 0.00 | 0.00 | 33 | 1004.9 |
| 20260505050550 | 71 | 248 | 1.7 | 7.0 | 0.00 | 0.00 | 0.00 | 33 | 1004.9 |
| 20260505050450 | 71 | 250 | 1.7 | 7.0 | 0.00 | 0.00 | 0.00 | 33 | 1004.9 |
| 20260505050337 | 71 | 221 | 1.7 | 7.0 | 0.00 | 0.00 | 0.00 | 33 | 1004.9 |
| 20260505050239 | 71 | 244 | 1.7 | 7.0 | 0.00 | 0.00 | 0.00 | 33 | 1004.9 |
| 20260505050139 | 71 | 241 | 1.7 | 7.0 | 0.00 | 0.00 | 0.00 | 33 | 1004.9 |
| 20260505041704 | 74 | 257 | 1.7 | 7.0 | 0.00 | 0.00 | 0.00 | 26 | 1005.4 |
| 20260505041552 | 74 | 232 | 1.7 | 7.0 | 0.00 | 0.00 | 0.00 | 26 | 1005.5 |
| 20260505041450 | 74 | 246 | 1.7 | 7.0 | 0.00 | 0.00 | 0.00 | 26 | 1005.5 |
| 20260505041349 | 74 | 240 | 1.7 | 5.2 | 0.00 | 0.00 | 0.00 | 26 | 1005.5 |
| 20260505041244 | 74 | 254 | 1.7 | 6.1 | 0.00 | 0.00 | 0.00 | 26 | 1005.5 |
| 20260505041148 | 74 | 259 | 1.7 | 6.1 | 0.00 | 0.00 | 0.00 | 26 | 1005.9 |
| 20260505041041 | 74 | 231 | 1.7 | 6.1 | 0.00 | 0.00 | 0.00 | 26 | 1005.9 |
| 20260505040942 | 74 | 184 | 2.6 | 6.1 | 0.00 | 0.00 | 0.00 | 26 | 1005.9 |
| 20260505040842 | 74 | 235 | 2.6 | 6.1 | 0.00 | 0.00 | 0.00 | 26 | 1006.0 |
| 20260505040731 | 74 | 275 | 2.6 | 6.1 | 0.00 | 0.00 | 0.00 | 26 | 1006.0 |
| 20260505040632 | 74 | 230 | 2.6 | 6.1 | 0.00 | 0.00 | 0.00 | 25 | 1006.0 |
| 20260505040535 | 74 | 258 | 2.6 | 6.1 | 0.00 | 0.00 | 0.00 | 25 | 1006.0 |
| 20260505040430 | 74 | 246 | 2.6 | 6.1 | 0.00 | 0.00 | 0.00 | 25 | 1006.0 |
| 20260505040329 | 74 | 233 | 2.6 | 6.1 | 0.00 | 0.00 | 0.00 | 25 | 1006.0 |
| 20260505040228 | 75 | 226 | 1.7 | 6.1 | 0.00 | 0.00 | 0.00 | 25 | 1006.0 |
| 20260505040135 | 75 | 169 | 1.7 | 6.1 | 0.00 | 0.00 | 0.00 | 25 | 1006.0 |
| 20260505040033 | 75 | 242 | 1.7 | 6.1 | 0.00 | 0.00 | 0.00 | 25 | 1006.0 |
| 20260505035929 | 75 | 241 | 1.7 | 6.1 | 0.00 | 0.00 | 0.00 | 25 | 1006.0 |
| 20260505035830 | 74 | 244 | 1.7 | 7.8 | 0.00 | 0.00 | 0.00 | 25 | 1006.0 |
| 20260505035722 | 75 | 244 | 1.7 | 7.8 | 0.00 | 0.00 | 0.00 | 25 | 1005.7 |
| 20260505035618 | 75 | 246 | 1.7 | 7.8 | 0.00 | 0.00 | 0.00 | 25 | 1005.7 |
| 20260505035516 | 75 | 278 | 2.6 | 7.8 | 0.00 | 0.00 | 0.00 | 25 | 1005.7 |